Time,TemperatureF,DewpointF,PressureIn,WindDirection,WindDirectionDegrees,WindSpeedMPH,WindSpeedGustMPH,Humidity,HourlyPrecipIn,Conditions,Clouds,dailyrainin,SoftwareType,DateUTC
2013-11-30 00:01:00,32.1,32.1,30.50,ENE,75,0.0,0.0,100,0.00,CLR,,0.00,WeatherDisplay:10.37,2013-11-30 05:01:00,
2013-11-30 00:02:00,32.1,32.1,30.49,ENE,75,0.0,0.0,100,0.00,CLR,,0.00,WeatherDisplay:10.37,2013-11-30 05:02:00,
2013-11-30 00:06:00,32.0,32.0,30.49,ENE,75,0.0,0.0,100,0.00,CLR,,0.00,WeatherDisplay:10.37,2013-11-30 05:06:00,
2013-11-30 00:07:00,31.9,31.9,30.49,ENE,75,0.0,0.0,100,0.00,CLR,,0.00,WeatherDisplay:10.37,2013-11-30 05:07:00,
2013-11-30 00:11:00,31.8,31.8,30.49,ENE,75,0.0,0.0,100,0.00,CLR,,0.00,WeatherDisplay:10.37,2013-11-30 05:11:00,
2013-11-30 00:12:00,31.8,31.8,30.49,ENE,75,0.0,0.0,100,0.00,CLR,,0.00,WeatherDisplay:10.37,2013-11-30 05:12:00,
2013-11-30 00:16:00,31.8,31.8,30.49,ENE,75,0.0,0.0,100,0.00,CLR,,0.00,WeatherDisplay:10.37,2013-11-30 05:16:00,
2013-11-30 00:17:00,31.8,31.8,30.49,ENE,75,0.0,0.0,100,0.00,CLR,,0.00,WeatherDisplay:10.37,2013-11-30 05:17:00,
2013-11-30 00:18:00,31.8,31.8,30.49,ENE,75,0.0,0.0,100,0.00,CLR,,0.00,WeatherDisplay:10.37,2013-11-30 05:18:00,
2013-11-30 00:22:00,31.7,31.7,30.49,ENE,75,0.0,0.0,100,0.00,CLR,,0.00,WeatherDisplay:10.37,2013-11-30 05:22:00,
2013-11-30 00:23:00,31.8,31.8,30.49,ENE,75,0.0,0.0,100,0.00,CLR,,0.00,WeatherDisplay:10.37,2013-11-30 05:23:00,
2013-11-30 00:27:00,31.7,31.7,30.49,ENE,75,0.0,0.0,100,0.00,CLR,,0.00,WeatherDisplay:10.37,2013-11-30 05:27:00,
2013-11-30 00:28:00,31.6,31.6,30.49,ENE,75,0.0,0.0,100,0.00,CLR,,0.00,WeatherDisplay:10.37,2013-11-30 05:28:00,
2013-11-30 00:29:00,31.6,31.6,30.49,ENE,75,0.0,0.0,100,0.00,CLR,,0.00,WeatherDisplay:10.37,2013-11-30 05:29:00,
2013-11-30 00:32:00,31.6,31.6,30.49,ENE,75,0.0,0.0,100,0.00,CLR,,0.00,WeatherDisplay:10.37,2013-11-30 05:32:00,
2013-11-30 00:33:00,31.5,31.5,30.49,ENE,75,0.0,0.0,100,0.00,CLR,,0.00,WeatherDisplay:10.37,2013-11-30 05:33:00,
2013-11-30 00:34:00,31.5,31.5,30.49,ENE,75,0.0,0.0,100,0.00,CLR,,0.00,WeatherDisplay:10.37,2013-11-30 05:34:00,
2013-11-30 00:37:00,31.4,31.4,30.49,ENE,75,0.0,0.0,100,0.00,CLR,,0.00,WeatherDisplay:10.37,2013-11-30 05:37:00,
2013-11-30 00:38:00,31.4,31.4,30.49,ENE,75,0.0,0.0,100,0.00,CLR,,0.00,WeatherDisplay:10.37,2013-11-30 05:38:00,
2013-11-30 00:39:00,31.4,31.4,30.49,ENE,75,0.0,0.0,100,0.00,CLR,,0.00,WeatherDisplay:10.37,2013-11-30 05:39:00,
2013-11-30 00:42:00,31.3,31.3,30.49,ENE,75,0.0,0.0,100,0.00,CLR,,0.00,WeatherDisplay:10.37,2013-11-30 05:42:00,
2013-11-30 00:43:00,31.3,31.3,30.49,ENE,75,0.0,0.0,100,0.00,CLR,,0.00,WeatherDisplay:10.37,2013-11-30 05:43:00,
2013-11-30 00:44:00,31.3,31.3,30.49,ENE,75,0.0,0.0,100,0.00,CLR,,0.00,WeatherDisplay:10.37,2013-11-30 05:44:00,
2013-11-30 00:47:00,31.2,31.2,30.49,ENE,75,0.0,0.0,100,0.00,CLR,,0.00,WeatherDisplay:10.37,2013-11-30 05:47:00,
2013-11-30 00:48:00,31.3,31.3,30.49,ENE,75,0.0,0.0,100,0.00,CLR,,0.00,WeatherDisplay:10.37,2013-11-30 05:48:00,
2013-11-30 00:49:00,31.2,31.2,30.49,ENE,75,0.0,0.0,100,0.00,CLR,,0.00,WeatherDisplay:10.37,2013-11-30 05:49:00,
2013-11-30 00:50:00,31.2,31.2,30.49,ENE,75,0.0,0.0,100,0.00,CLR,,0.00,WeatherDisplay:10.37,2013-11-30 05:50:00,
2013-11-30 00:52:00,31.2,31.2,30.49,ENE,75,0.0,0.0,100,0.00,CLR,,0.00,WeatherDisplay:10.37,2013-11-30 05:52:00,
2013-11-30 00:53:00,31.2,31.2,30.49,ENE,75,0.0,0.0,100,0.00,CLR,,0.00,WeatherDisplay:10.37,2013-11-30 05:53:00,
2013-11-30 00:54:00,31.2,31.2,30.49,ENE,75,0.0,0.0,100,0.00,CLR,,0.00,WeatherDisplay:10.37,2013-11-30 05:54:00,
2013-11-30 00:55:00,31.1,31.1,30.49,ENE,75,0.0,0.0,100,0.00,CLR,,0.00,WeatherDisplay:10.37,2013-11-30 05:55:00,
2013-11-30 00:57:00,31.0,31.0,30.48,ENE,75,0.0,0.0,100,0.00,CLR,,0.00,WeatherDisplay:10.37,2013-11-30 05:57:00,
2013-11-30 00:58:00,31.0,31.0,30.48,ENE,75,0.0,0.0,100,0.00,CLR,,0.00,WeatherDisplay:10.37,2013-11-30 05:58:00,
2013-11-30 00:59:00,30.9,30.9,30.48,ENE,75,0.0,0.0,100,0.00,CLR,,0.00,WeatherDisplay:10.37,2013-11-30 05:59:00,
2013-11-30 01:01:00,30.8,30.8,30.48,ENE,75,0.0,0.0,100,0.00,CLR,,0.00,WeatherDisplay:10.37,2013-11-30 06:01:00,
2013-11-30 01:02:00,30.8,30.8,30.48,ENE,75,0.0,0.0,100,0.00,CLR,,0.00,WeatherDisplay:10.37,2013-11-30 06:02:00,
2013-11-30 01:03:00,30.8,30.8,30.48,ENE,75,0.0,0.0,100,0.00,CLR,,0.00,WeatherDisplay:10.37,2013-11-30 06:03:00,
2013-11-30 01:04:00,30.8,30.8,30.48,ENE,75,0.0,0.0,100,0.00,CLR,,0.00,WeatherDisplay:10.37,2013-11-30 06:04:00,
2013-11-30 01:05:00,30.8,30.8,30.48,ENE,75,0.0,0.0,100,0.00,CLR,,0.00,WeatherDisplay:10.37,2013-11-30 06:05:00,
2013-11-30 01:06:00,30.8,30.8,30.48,ENE,75,0.0,0.0,100,0.00,CLR,,0.00,WeatherDisplay:10.37,2013-11-30 06:06:00,
2013-11-30 01:07:00,30.7,30.7,30.48,ENE,75,0.0,0.0,100,0.00,CLR,,0.00,WeatherDisplay:10.37,2013-11-30 06:07:00,
2013-11-30 01:09:00,30.7,30.7,30.48,ENE,75,0.0,0.0,100,0.00,CLR,,0.00,WeatherDisplay:10.37,2013-11-30 06:09:00,
2013-11-30 01:10:00,30.7,30.7,30.48,ENE,75,0.0,0.0,100,0.00,CLR,,0.00,WeatherDisplay:10.37,2013-11-30 06:10:00,
2013-11-30 01:11:00,30.6,30.6,30.48,ENE,75,0.0,0.0,100,0.00,CLR,,0.00,WeatherDisplay:10.37,2013-11-30 06:11:00,
2013-11-30 01:13:00,30.5,30.5,30.48,ENE,75,0.0,0.0,100,0.00,CLR,,0.00,WeatherDisplay:10.37,2013-11-30 06:13:00,
2013-11-30 01:14:00,30.3,30.3,30.48,ENE,75,0.0,0.0,100,0.00,CLR,,0.00,WeatherDisplay:10.37,2013-11-30 06:14:00,
2013-11-30 01:15:00,30.3,30.3,30.48,ENE,75,0.0,0.0,100,0.00,CLR,,0.00,WeatherDisplay:10.37,2013-11-30 06:15:00,
2013-11-30 01:16:00,30.2,30.2,30.48,ENE,75,0.0,0.0,100,0.00,CLR,,0.00,WeatherDisplay:10.37,2013-11-30 06:16:00,
2013-11-30 01:18:00,30.2,30.2,30.48,ENE,75,0.0,0.0,100,0.00,CLR,,0.00,WeatherDisplay:10.37,2013-11-30 06:18:00,
2013-11-30 01:20:00,30.2,30.2,30.48,ENE,75,0.0,0.0,100,0.00,CLR,,0.00,WeatherDisplay:10.37,2013-11-30 06:20:00,
2013-11-30 01:21:00,30.3,30.3,30.48,ENE,75,0.0,0.0,100,0.00,CLR,,0.00,WeatherDisplay:10.37,2013-11-30 06:21:00,
2013-11-30 01:22:00,30.3,30.3,30.48,ENE,75,0.0,0.0,100,0.00,CLR,,0.00,WeatherDisplay:10.37,2013-11-30 06:22:00,
2013-11-30 01:23:00,30.3,30.3,30.48,ENE,75,0.0,0.0,100,0.00,CLR,,0.00,WeatherDisplay:10.37,2013-11-30 06:23:00,
2013-11-30 01:25:00,30.4,30.4,30.48,ENE,75,0.0,0.0,100,0.00,CLR,,0.00,WeatherDisplay:10.37,2013-11-30 06:25:00,
2013-11-30 01:26:00,30.4,30.4,30.48,ENE,75,0.0,0.0,100,0.00,CLR,,0.00,WeatherDisplay:10.37,2013-11-30 06:26:00,
2013-11-30 01:27:00,30.4,30.4,30.48,ENE,75,0.0,0.0,100,0.00,CLR,,0.00,WeatherDisplay:10.37,2013-11-30 06:27:00,
2013-11-30 01:28:00,30.4,30.4,30.48,ENE,75,0.0,0.0,100,0.00,CLR,,0.00,WeatherDisplay:10.37,2013-11-30 06:28:00,
2013-11-30 01:30:00,30.4,30.4,30.48,ENE,75,0.0,0.0,100,0.00,CLR,,0.00,WeatherDisplay:10.37,2013-11-30 06:30:00,
2013-11-30 01:31:00,30.4,30.4,30.48,ENE,75,0.0,0.0,100,0.00,CLR,,0.00,WeatherDisplay:10.37,2013-11-30 06:31:00,
2013-11-30 01:32:00,30.4,30.4,30.48,ENE,75,0.0,0.0,100,0.00,CLR,,0.00,WeatherDisplay:10.37,2013-11-30 06:32:00,
2013-11-30 01:33:00,30.3,30.3,30.48,ENE,75,0.0,0.0,100,0.00,CLR,,0.00,WeatherDisplay:10.37,2013-11-30 06:33:00,
2013-11-30 01:36:00,30.2,30.2,30.49,ENE,75,0.0,0.0,100,0.00,CLR,,0.00,WeatherDisplay:10.37,2013-11-30 06:36:00,
2013-11-30 01:37:00,30.2,30.2,30.49,ENE,75,0.0,0.0,100,0.00,CLR,,0.00,WeatherDisplay:10.37,2013-11-30 06:37:00,
2013-11-30 01:38:00,30.1,30.1,30.48,ENE,75,0.0,0.0,100,0.00,CLR,,0.00,WeatherDisplay:10.37,2013-11-30 06:38:00,
2013-11-30 01:41:00,30.0,30.0,30.49,ENE,75,0.0,0.0,100,0.00,CLR,,0.00,WeatherDisplay:10.37,2013-11-30 06:41:00,
2013-11-30 01:42:00,30.1,30.1,30.49,ENE,75,0.0,0.0,100,0.00,CLR,,0.00,WeatherDisplay:10.37,2013-11-30 06:42:00,
2013-11-30 01:43:00,30.1,30.1,30.49,ENE,75,0.0,0.0,100,0.00,CLR,,0.00,WeatherDisplay:10.37,2013-11-30 06:43:00,
2013-11-30 01:46:00,30.1,30.1,30.49,ENE,75,0.0,0.0,100,0.00,CLR,,0.00,WeatherDisplay:10.37,2013-11-30 06:46:00,
2013-11-30 01:47:00,30.0,30.0,30.48,ENE,75,0.0,0.0,100,0.00,CLR,,0.00,WeatherDisplay:10.37,2013-11-30 06:47:00,
2013-11-30 01:48:00,30.0,30.0,30.48,ENE,75,0.0,0.0,100,0.00,CLR,,0.00,WeatherDisplay:10.37,2013-11-30 06:48:00,
2013-11-30 01:51:00,30.0,30.0,30.49,ENE,75,0.0,0.0,100,0.00,CLR,,0.00,WeatherDisplay:10.37,2013-11-30 06:51:00,
2013-11-30 01:53:00,30.0,30.0,30.49,ENE,75,0.0,0.0,100,0.00,CLR,,0.00,WeatherDisplay:10.37,2013-11-30 06:53:00,
2013-11-30 01:54:00,30.0,30.0,30.48,ENE,75,0.0,0.0,100,0.00,CLR,,0.00,WeatherDisplay:10.37,2013-11-30 06:54:00,
2013-11-30 01:56:00,29.9,29.9,30.48,ENE,75,0.0,0.0,100,0.00,CLR,,0.00,WeatherDisplay:10.37,2013-11-30 06:56:00,
2013-11-30 01:58:00,29.9,29.9,30.48,ENE,75,0.0,0.0,100,0.00,CLR,,0.00,WeatherDisplay:10.37,2013-11-30 06:58:00,
2013-11-30 01:59:00,29.8,29.8,30.49,ENE,75,0.0,0.0,100,0.00,CLR,,0.00,WeatherDisplay:10.37,2013-11-30 06:59:00,
2013-11-30 02:02:00,29.6,29.6,30.49,ENE,75,0.0,0.0,100,0.00,CLR,,0.00,WeatherDisplay:10.37,2013-11-30 07:02:00,
2013-11-30 02:03:00,29.5,29.5,30.49,ENE,75,0.0,0.0,100,0.00,CLR,,0.00,WeatherDisplay:10.37,2013-11-30 07:03:00,
2013-11-30 02:04:00,29.5,29.5,30.49,ENE,75,0.0,0.0,100,0.00,CLR,,0.00,WeatherDisplay:10.37,2013-11-30 07:04:00,
2013-11-30 02:08:00,29.5,29.5,30.48,ENE,75,0.0,0.0,100,0.00,CLR,,0.00,WeatherDisplay:10.37,2013-11-30 07:08:00,
2013-11-30 02:09:00,29.6,29.6,30.48,ENE,75,0.0,0.0,100,0.00,CLR,,0.00,WeatherDisplay:10.37,2013-11-30 07:09:00,
2013-11-30 02:10:00,29.6,29.6,30.48,ENE,75,0.0,0.0,100,0.00,CLR,,0.00,WeatherDisplay:10.37,2013-11-30 07:10:00,
2013-11-30 02:13:00,29.5,29.5,30.48,ENE,75,0.0,0.0,100,0.00,CLR,,0.00,WeatherDisplay:10.37,2013-11-30 07:13:00,
2013-11-30 02:14:00,29.4,29.4,30.48,ENE,75,0.0,0.0,100,0.00,CLR,,0.00,WeatherDisplay:10.37,2013-11-30 07:14:00,
2013-11-30 02:15:00,29.4,29.4,30.48,ENE,75,0.0,0.0,100,0.00,CLR,,0.00,WeatherDisplay:10.37,2013-11-30 07:15:00,
2013-11-30 02:19:00,29.4,29.4,30.48,ENE,75,0.0,0.0,100,0.00,CLR,,0.00,WeatherDisplay:10.37,2013-11-30 07:19:00,
2013-11-30 02:20:00,29.4,29.4,30.48,ENE,75,0.0,0.0,100,0.00,CLR,,0.00,WeatherDisplay:10.37,2013-11-30 07:20:00,
2013-11-30 02:24:00,29.3,29.3,30.48,ENE,75,0.0,0.0,100,0.00,CLR,,0.00,WeatherDisplay:10.37,2013-11-30 07:24:00,
2013-11-30 02:25:00,29.2,29.2,30.49,ENE,75,0.0,0.0,100,0.00,CLR,,0.00,WeatherDisplay:10.37,2013-11-30 07:25:00,
2013-11-30 02:26:00,29.2,29.2,30.48,ENE,75,0.0,0.0,100,0.00,CLR,,0.00,WeatherDisplay:10.37,2013-11-30 07:26:00,
2013-11-30 02:29:00,29.2,29.2,30.48,ENE,75,0.0,0.0,100,0.00,CLR,,0.00,WeatherDisplay:10.37,2013-11-30 07:29:00,
2013-11-30 02:30:00,29.1,29.1,30.48,ENE,75,0.0,0.0,100,0.00,CLR,,0.00,WeatherDisplay:10.37,2013-11-30 07:30:00,
2013-11-30 02:31:00,29.1,29.1,30.49,ENE,75,0.0,0.0,100,0.00,CLR,,0.00,WeatherDisplay:10.37,2013-11-30 07:31:00,
2013-11-30 02:34:00,29.0,29.0,30.49,ENE,75,0.0,0.0,100,0.00,CLR,,0.00,WeatherDisplay:10.37,2013-11-30 07:34:00,
2013-11-30 02:35:00,28.9,28.9,30.49,ENE,75,0.0,0.0,100,0.00,CLR,,0.00,WeatherDisplay:10.37,2013-11-30 07:35:00,
2013-11-30 02:36:00,28.9,28.9,30.49,ENE,75,0.0,0.0,100,0.00,CLR,,0.00,WeatherDisplay:10.37,2013-11-30 07:36:00,
2013-11-30 02:37:00,29.0,29.0,30.48,ENE,75,0.0,0.0,100,0.00,CLR,,0.00,WeatherDisplay:10.37,2013-11-30 07:37:00,
2013-11-30 02:40:00,29.0,29.0,30.48,ENE,75,0.0,0.0,100,0.00,CLR,,0.00,WeatherDisplay:10.37,2013-11-30 07:40:00,
2013-11-30 02:41:00,29.0,29.0,30.48,ENE,75,0.0,0.0,100,0.00,CLR,,0.00,WeatherDisplay:10.37,2013-11-30 07:41:00,
2013-11-30 02:42:00,29.0,29.0,30.48,ENE,75,0.0,0.0,100,0.00,CLR,,0.00,WeatherDisplay:10.37,2013-11-30 07:42:00,
2013-11-30 02:43:00,29.0,29.0,30.48,ENE,75,0.0,0.0,100,0.00,CLR,,0.00,WeatherDisplay:10.37,2013-11-30 07:43:00,
2013-11-30 02:45:00,29.0,29.0,30.48,ENE,75,0.0,0.0,100,0.00,CLR,,0.00,WeatherDisplay:10.37,2013-11-30 07:45:00,
2013-11-30 02:46:00,29.0,29.0,30.48,ENE,75,0.0,0.0,100,0.00,CLR,,0.00,WeatherDisplay:10.37,2013-11-30 07:46:00,
2013-11-30 02:48:00,29.0,29.0,30.49,ENE,75,0.0,0.0,100,0.00,CLR,,0.00,WeatherDisplay:10.37,2013-11-30 07:48:00,
2013-11-30 02:50:00,28.9,28.9,30.48,ENE,75,0.0,0.0,100,0.00,CLR,,0.00,WeatherDisplay:10.37,2013-11-30 07:50:00,
2013-11-30 02:51:00,28.9,28.9,30.49,ENE,75,0.0,0.0,100,0.00,CLR,,0.00,WeatherDisplay:10.37,2013-11-30 07:51:00,
2013-11-30 02:52:00,28.9,28.9,30.48,ENE,75,0.0,0.0,100,0.00,CLR,,0.00,WeatherDisplay:10.37,2013-11-30 07:52:00,
2013-11-30 02:53:00,28.9,28.9,30.49,ENE,75,0.0,0.0,100,0.00,CLR,,0.00,WeatherDisplay:10.37,2013-11-30 07:53:00,
2013-11-30 02:55:00,28.8,28.8,30.48,ENE,75,0.0,0.0,100,0.00,CLR,,0.00,WeatherDisplay:10.37,2013-11-30 07:55:00,
2013-11-30 02:56:00,28.8,28.8,30.49,ENE,75,0.0,0.0,100,0.00,CLR,,0.00,WeatherDisplay:10.37,2013-11-30 07:56:00,
2013-11-30 02:57:00,28.8,28.8,30.48,ENE,75,0.0,0.0,100,0.00,CLR,,0.00,WeatherDisplay:10.37,2013-11-30 07:57:00,
2013-11-30 02:58:00,28.8,28.8,30.48,ENE,75,0.0,0.0,100,0.00,CLR,,0.00,WeatherDisplay:10.37,2013-11-30 07:58:00,
2013-11-30 03:01:00,28.7,28.7,30.49,ENE,75,0.0,0.0,100,0.00,CLR,,0.00,WeatherDisplay:10.37,2013-11-30 08:01:00,
2013-11-30 03:02:00,28.6,28.6,30.48,ENE,75,0.0,0.0,100,0.00,CLR,,0.00,WeatherDisplay:10.37,2013-11-30 08:02:00,
2013-11-30 03:03:00,28.6,28.6,30.49,ENE,75,0.0,0.0,100,0.00,CLR,,0.00,WeatherDisplay:10.37,2013-11-30 08:03:00,
2013-11-30 03:07:00,28.5,28.5,30.48,ENE,75,0.0,0.0,100,0.00,CLR,,0.00,WeatherDisplay:10.37,2013-11-30 08:07:00,
2013-11-30 03:08:00,28.5,28.5,30.48,ENE,75,0.0,0.0,100,0.00,CLR,,0.00,WeatherDisplay:10.37,2013-11-30 08:08:00,
2013-11-30 03:09:00,28.5,28.5,30.48,ENE,75,0.0,0.0,100,0.00,CLR,,0.00,WeatherDisplay:10.37,2013-11-30 08:09:00,
2013-11-30 03:12:00,28.5,28.5,30.49,ENE,75,0.0,0.0,100,0.00,CLR,,0.00,WeatherDisplay:10.37,2013-11-30 08:12:00,
2013-11-30 03:13:00,28.4,28.4,30.48,ENE,75,0.0,0.0,100,0.00,CLR,,0.00,WeatherDisplay:10.37,2013-11-30 08:13:00,
2013-11-30 03:14:00,28.5,28.5,30.48,ENE,75,0.0,0.0,100,0.00,CLR,,0.00,WeatherDisplay:10.37,2013-11-30 08:14:00,
2013-11-30 03:17:00,28.5,28.5,30.48,ENE,75,0.0,0.0,100,0.00,CLR,,0.00,WeatherDisplay:10.37,2013-11-30 08:17:00,
2013-11-30 03:18:00,28.5,28.5,30.48,ENE,75,0.0,0.0,100,0.00,CLR,,0.00,WeatherDisplay:10.37,2013-11-30 08:18:00,
2013-11-30 03:19:00,28.5,28.5,30.48,ENE,75,0.0,0.0,100,0.00,CLR,,0.00,WeatherDisplay:10.37,2013-11-30 08:19:00,
2013-11-30 03:22:00,28.3,28.3,30.49,ENE,75,0.0,0.0,100,0.00,CLR,,0.00,WeatherDisplay:10.37,2013-11-30 08:22:00,
2013-11-30 03:23:00,28.3,28.3,30.48,ENE,75,0.0,0.0,100,0.00,CLR,,0.00,WeatherDisplay:10.37,2013-11-30 08:23:00,
2013-11-30 03:24:00,28.3,28.3,30.48,ENE,75,0.0,0.0,100,0.00,CLR,,0.00,WeatherDisplay:10.37,2013-11-30 08:24:00,
2013-11-30 03:25:00,28.3,28.3,30.48,ENE,75,0.0,0.0,100,0.00,CLR,,0.00,WeatherDisplay:10.37,2013-11-30 08:25:00,
2013-11-30 03:27:00,28.2,28.2,30.49,ENE,75,0.0,0.0,100,0.00,CLR,,0.00,WeatherDisplay:10.37,2013-11-30 08:27:00,
2013-11-30 03:28:00,28.2,28.2,30.49,ENE,75,0.0,0.0,100,0.00,CLR,,0.00,WeatherDisplay:10.37,2013-11-30 08:28:00,
2013-11-30 03:29:00,28.2,28.2,30.48,ENE,75,0.0,0.0,100,0.00,CLR,,0.00,WeatherDisplay:10.37,2013-11-30 08:29:00,
2013-11-30 03:30:00,28.1,28.1,30.48,ENE,75,0.0,0.0,100,0.00,CLR,,0.00,WeatherDisplay:10.37,2013-11-30 08:30:00,
2013-11-30 03:31:00,28.2,28.2,30.49,ENE,75,0.0,0.0,100,0.00,CLR,,0.00,WeatherDisplay:10.37,2013-11-30 08:31:00,
2013-11-30 03:32:00,28.2,28.2,30.48,ENE,75,0.0,0.0,100,0.00,CLR,,0.00,WeatherDisplay:10.37,2013-11-30 08:32:00,
2013-11-30 03:33:00,28.2,28.2,30.48,ENE,75,0.0,0.0,100,0.00,CLR,,0.00,WeatherDisplay:10.37,2013-11-30 08:33:00,
2013-11-30 03:34:00,28.2,28.2,30.48,ENE,75,0.0,0.0,100,0.00,CLR,,0.00,WeatherDisplay:10.37,2013-11-30 08:34:00,
2013-11-30 03:35:00,28.2,28.2,30.49,ENE,75,0.0,0.0,100,0.00,CLR,,0.00,WeatherDisplay:10.37,2013-11-30 08:35:00,
2013-11-30 03:36:00,28.2,28.2,30.49,ENE,75,0.0,0.0,100,0.00,CLR,,0.00,WeatherDisplay:10.37,2013-11-30 08:36:00,
2013-11-30 03:38:00,28.2,28.2,30.48,ENE,75,0.0,0.0,100,0.00,CLR,,0.00,WeatherDisplay:10.37,2013-11-30 08:38:00,
2013-11-30 03:39:00,28.2,28.2,30.48,ENE,75,0.0,0.0,100,0.00,CLR,,0.00,WeatherDisplay:10.37,2013-11-30 08:39:00,
2013-11-30 03:41:00,28.2,28.2,30.48,ENE,75,0.0,0.0,100,0.00,CLR,,0.00,WeatherDisplay:10.37,2013-11-30 08:41:00,
2013-11-30 03:43:00,28.1,28.1,30.48,ENE,75,0.0,0.0,100,0.00,CLR,,0.00,WeatherDisplay:10.37,2013-11-30 08:43:00,
2013-11-30 03:44:00,28.1,28.1,30.49,ENE,75,0.0,0.0,100,0.00,CLR,,0.00,WeatherDisplay:10.37,2013-11-30 08:44:00,
2013-11-30 03:45:00,28.0,28.0,30.49,ENE,75,0.0,0.0,100,0.00,CLR,,0.00,WeatherDisplay:10.37,2013-11-30 08:45:00,
2013-11-30 03:46:00,27.9,27.9,30.49,ENE,75,0.0,0.0,100,0.00,CLR,,0.00,WeatherDisplay:10.37,2013-11-30 08:46:00,
2013-11-30 03:48:00,27.9,27.9,30.49,ENE,75,0.0,0.0,100,0.00,CLR,,0.00,WeatherDisplay:10.37,2013-11-30 08:48:00,
2013-11-30 03:49:00,27.7,27.7,30.49,ENE,75,0.0,0.0,100,0.00,CLR,,0.00,WeatherDisplay:10.37,2013-11-30 08:49:00,
2013-11-30 03:50:00,27.7,27.7,30.49,ENE,75,0.0,0.0,100,0.00,CLR,,0.00,WeatherDisplay:10.37,2013-11-30 08:50:00,
2013-11-30 03:51:00,27.7,27.7,30.49,ENE,75,0.0,0.0,100,0.00,CLR,,0.00,WeatherDisplay:10.37,2013-11-30 08:51:00,
2013-11-30 03:52:00,27.7,27.7,30.49,ENE,75,0.0,0.0,100,0.00,CLR,,0.00,WeatherDisplay:10.37,2013-11-30 08:52:00,
2013-11-30 03:53:00,27.7,27.7,30.49,ENE,75,0.0,0.0,100,0.00,CLR,,0.00,WeatherDisplay:10.37,2013-11-30 08:53:00,
2013-11-30 03:54:00,27.6,27.6,30.49,ENE,75,0.0,0.0,100,0.00,CLR,,0.00,WeatherDisplay:10.37,2013-11-30 08:54:00,
2013-11-30 03:55:00,27.6,27.6,30.49,ENE,75,0.0,0.0,100,0.00,CLR,,0.00,WeatherDisplay:10.37,2013-11-30 08:55:00,
2013-11-30 03:56:00,27.6,27.6,30.49,ENE,75,0.0,0.0,100,0.00,CLR,,0.00,WeatherDisplay:10.37,2013-11-30 08:56:00,
2013-11-30 03:58:00,27.7,27.7,30.49,ENE,75,0.0,0.0,100,0.00,CLR,,0.00,WeatherDisplay:10.37,2013-11-30 08:58:00,
2013-11-30 03:59:00,27.7,27.7,30.49,ENE,75,0.0,0.0,100,0.00,CLR,,0.00,WeatherDisplay:10.37,2013-11-30 08:59:00,
2013-11-30 04:00:00,27.7,27.7,30.49,ENE,75,0.0,0.0,100,0.00,CLR,,0.00,WeatherDisplay:10.37,2013-11-30 09:00:00,
2013-11-30 04:02:00,27.7,27.7,30.49,ENE,75,1.4,2.0,100,0.00,CLR,,0.00,WeatherDisplay:10.37,2013-11-30 09:02:00,
2013-11-30 04:03:00,27.8,27.8,30.49,ENE,75,1.6,2.3,100,0.00,CLR,,0.00,WeatherDisplay:10.37,2013-11-30 09:03:00,
2013-11-30 04:04:00,27.8,27.8,30.48,ENE,75,0.2,2.3,100,0.00,CLR,,0.00,WeatherDisplay:10.37,2013-11-30 09:04:00,
2013-11-30 04:05:00,27.8,27.8,30.49,ENE,75,0.0,0.0,100,0.00,CLR,,0.00,WeatherDisplay:10.37,2013-11-30 09:05:00,
2013-11-30 04:06:00,27.8,27.8,30.48,ENE,75,0.0,0.0,100,0.00,CLR,,0.00,WeatherDisplay:10.37,2013-11-30 09:06:00,
2013-11-30 04:07:00,27.8,27.8,30.48,ENE,75,0.0,0.0,100,0.00,CLR,,0.00,WeatherDisplay:10.37,2013-11-30 09:07:00,
2013-11-30 04:08:00,27.7,27.7,30.49,ENE,75,0.0,0.0,100,0.00,CLR,,0.00,WeatherDisplay:10.37,2013-11-30 09:08:00,
2013-11-30 04:09:00,27.7,27.7,30.49,ENE,75,0.0,0.0,100,0.00,CLR,,0.00,WeatherDisplay:10.37,2013-11-30 09:09:00,
2013-11-30 04:10:00,27.7,27.7,30.48,ENE,75,0.0,0.0,100,0.00,CLR,,0.00,WeatherDisplay:10.37,2013-11-30 09:10:00,
2013-11-30 04:11:00,27.7,27.7,30.48,ENE,75,0.0,0.0,100,0.00,CLR,,0.00,WeatherDisplay:10.37,2013-11-30 09:11:00,
2013-11-30 04:12:00,27.7,27.7,30.48,ENE,75,0.0,0.0,100,0.00,CLR,,0.00,WeatherDisplay:10.37,2013-11-30 09:12:00,
2013-11-30 04:13:00,27.7,27.7,30.48,ENE,75,0.0,0.0,100,0.00,CLR,,0.00,WeatherDisplay:10.37,2013-11-30 09:13:00,
2013-11-30 04:14:00,27.7,27.7,30.48,ENE,75,0.0,0.0,100,0.00,CLR,,0.00,WeatherDisplay:10.37,2013-11-30 09:14:00,
2013-11-30 04:15:00,27.7,27.7,30.48,ENE,75,0.0,0.0,100,0.00,CLR,,0.00,WeatherDisplay:10.37,2013-11-30 09:15:00,
2013-11-30 04:16:00,27.7,27.7,30.49,ENE,75,0.0,0.0,100,0.00,CLR,,0.00,WeatherDisplay:10.37,2013-11-30 09:16:00,
2013-11-30 04:17:00,27.7,27.7,30.49,ENE,75,0.0,0.0,100,0.00,CLR,,0.00,WeatherDisplay:10.37,2013-11-30 09:17:00,
2013-11-30 04:18:00,27.7,27.7,30.48,ENE,75,0.0,0.0,100,0.00,CLR,,0.00,WeatherDisplay:10.37,2013-11-30 09:18:00,
2013-11-30 04:19:00,27.7,27.7,30.48,ENE,75,0.0,0.0,100,0.00,CLR,,0.00,WeatherDisplay:10.37,2013-11-30 09:19:00,
2013-11-30 04:20:00,27.6,27.6,30.48,ENE,75,0.0,0.0,100,0.00,CLR,,0.00,WeatherDisplay:10.37,2013-11-30 09:20:00,
2013-11-30 04:21:00,27.7,27.7,30.48,ENE,75,0.0,0.0,100,0.00,CLR,,0.00,WeatherDisplay:10.37,2013-11-30 09:21:00,
2013-11-30 04:22:00,27.6,27.6,30.48,ENE,75,0.0,0.0,100,0.00,CLR,,0.00,WeatherDisplay:10.37,2013-11-30 09:22:00,
2013-11-30 04:23:00,27.6,27.6,30.48,ENE,75,0.0,0.0,100,0.00,CLR,,0.00,WeatherDisplay:10.37,2013-11-30 09:23:00,
2013-11-30 04:24:00,27.5,27.5,30.48,ENE,75,0.0,0.0,100,0.00,CLR,,0.00,WeatherDisplay:10.37,2013-11-30 09:24:00,
2013-11-30 04:25:00,27.5,27.5,30.48,ENE,75,0.0,0.0,100,0.00,CLR,,0.00,WeatherDisplay:10.37,2013-11-30 09:25:00,
2013-11-30 04:27:00,27.4,27.4,30.48,ENE,75,0.0,0.0,100,0.00,CLR,,0.00,WeatherDisplay:10.37,2013-11-30 09:27:00,
2013-11-30 04:28:00,27.3,27.3,30.48,ENE,75,0.0,0.0,100,0.00,CLR,,0.00,WeatherDisplay:10.37,2013-11-30 09:28:00,
2013-11-30 04:29:00,27.3,27.3,30.48,ENE,75,0.0,0.0,100,0.00,CLR,,0.00,WeatherDisplay:10.37,2013-11-30 09:29:00,
2013-11-30 04:30:00,27.2,27.2,30.48,ENE,75,0.0,0.0,100,0.00,CLR,,0.00,WeatherDisplay:10.37,2013-11-30 09:30:00,
2013-11-30 04:32:00,27.2,27.2,30.49,ENE,75,0.0,0.0,100,0.00,CLR,,0.00,WeatherDisplay:10.37,2013-11-30 09:32:00,
2013-11-30 04:33:00,27.2,27.2,30.48,ENE,75,0.0,0.0,100,0.00,CLR,,0.00,WeatherDisplay:10.37,2013-11-30 09:33:00,
2013-11-30 04:34:00,27.2,27.2,30.49,ENE,75,0.0,0.0,100,0.00,CLR,,0.00,WeatherDisplay:10.37,2013-11-30 09:34:00,
2013-11-30 04:35:00,27.2,27.2,30.49,ENE,75,0.0,0.0,100,0.00,CLR,,0.00,WeatherDisplay:10.37,2013-11-30 09:35:00,
2013-11-30 04:37:00,27.2,27.2,30.49,ENE,75,0.0,0.0,100,0.00,CLR,,0.00,WeatherDisplay:10.37,2013-11-30 09:37:00,
2013-11-30 04:38:00,27.1,27.1,30.48,ENE,75,0.0,0.0,100,0.00,CLR,,0.00,WeatherDisplay:10.37,2013-11-30 09:38:00,
2013-11-30 04:39:00,27.2,27.2,30.48,ENE,75,0.0,0.0,100,0.00,CLR,,0.00,WeatherDisplay:10.37,2013-11-30 09:39:00,
2013-11-30 04:40:00,27.2,27.2,30.48,ENE,75,0.0,1.0,100,0.00,CLR,,0.00,WeatherDisplay:10.37,2013-11-30 09:40:00,
2013-11-30 04:41:00,27.1,27.1,30.48,ENE,75,0.1,1.1,100,0.00,CLR,,0.00,WeatherDisplay:10.37,2013-11-30 09:41:00,
2013-11-30 04:42:00,27.1,27.1,30.48,ENE,75,0.0,0.0,100,0.00,CLR,,0.00,WeatherDisplay:10.37,2013-11-30 09:42:00,
2013-11-30 04:43:00,27.1,27.1,30.49,ENE,75,0.0,0.0,100,0.00,CLR,,0.00,WeatherDisplay:10.37,2013-11-30 09:43:00,
2013-11-30 04:44:00,27.1,27.1,30.49,ENE,75,0.0,0.0,100,0.00,CLR,,0.00,WeatherDisplay:10.37,2013-11-30 09:44:00,
2013-11-30 04:45:00,27.1,27.1,30.49,ENE,75,0.0,0.0,100,0.00,CLR,,0.00,WeatherDisplay:10.37,2013-11-30 09:45:00,
2013-11-30 04:46:00,27.0,27.0,30.49,ENE,75,0.0,0.0,100,0.00,CLR,,0.00,WeatherDisplay:10.37,2013-11-30 09:46:00,
2013-11-30 04:47:00,26.8,26.8,30.49,ENE,75,0.0,0.0,100,0.00,CLR,,0.00,WeatherDisplay:10.37,2013-11-30 09:47:00,
2013-11-30 04:48:00,26.8,26.8,30.49,ENE,75,0.0,0.0,100,0.00,CLR,,0.00,WeatherDisplay:10.37,2013-11-30 09:48:00,
2013-11-30 04:49:00,26.7,26.7,30.49,ENE,75,0.0,0.0,100,0.00,CLR,,0.00,WeatherDisplay:10.37,2013-11-30 09:49:00,
2013-11-30 04:50:00,26.7,26.7,30.49,ENE,75,0.0,0.0,100,0.00,CLR,,0.00,WeatherDisplay:10.37,2013-11-30 09:50:00,
2013-11-30 04:51:00,26.8,26.8,30.49,ENE,75,0.0,0.0,100,0.00,CLR,,0.00,WeatherDisplay:10.37,2013-11-30 09:51:00,
2013-11-30 04:52:00,26.8,26.8,30.49,ENE,75,0.0,0.0,100,0.00,CLR,,0.00,WeatherDisplay:10.37,2013-11-30 09:52:00,
2013-11-30 04:53:00,26.8,26.8,30.49,ENE,75,0.0,0.0,100,0.00,CLR,,0.00,WeatherDisplay:10.37,2013-11-30 09:53:00,
2013-11-30 04:54:00,26.8,26.8,30.49,ENE,75,0.0,0.0,100,0.00,CLR,,0.00,WeatherDisplay:10.37,2013-11-30 09:54:00,
2013-11-30 04:55:00,26.8,26.8,30.49,ENE,75,0.0,0.0,100,0.00,CLR,,0.00,WeatherDisplay:10.37,2013-11-30 09:55:00,
2013-11-30 04:56:00,26.9,26.9,30.49,ENE,75,0.0,0.0,100,0.00,CLR,,0.00,WeatherDisplay:10.37,2013-11-30 09:56:00,
2013-11-30 04:58:00,26.8,26.8,30.49,ENE,75,0.0,0.0,100,0.00,CLR,,0.00,WeatherDisplay:10.37,2013-11-30 09:58:00,
2013-11-30 04:59:00,26.8,26.8,30.49,ENE,75,0.0,0.0,100,0.00,CLR,,0.00,WeatherDisplay:10.37,2013-11-30 09:59:00,
2013-11-30 05:00:00,26.9,26.9,30.49,ENE,75,0.0,0.0,100,0.00,CLR,,0.00,WeatherDisplay:10.37,2013-11-30 10:00:00,
2013-11-30 05:01:00,26.8,26.8,30.49,ENE,75,0.0,0.0,100,0.00,CLR,,0.00,WeatherDisplay:10.37,2013-11-30 10:01:00,
2013-11-30 05:03:00,26.8,26.8,30.49,ENE,75,0.0,0.0,100,0.00,CLR,,0.00,WeatherDisplay:10.37,2013-11-30 10:03:00,
2013-11-30 05:04:00,26.8,26.8,30.49,ENE,75,0.0,0.0,100,0.00,CLR,,0.00,WeatherDisplay:10.37,2013-11-30 10:04:00,
2013-11-30 05:05:00,26.7,26.7,30.49,ENE,75,0.0,0.0,100,0.00,CLR,,0.00,WeatherDisplay:10.37,2013-11-30 10:05:00,
2013-11-30 05:06:00,26.7,26.7,30.49,ENE,75,0.0,0.0,100,0.00,CLR,,0.00,WeatherDisplay:10.37,2013-11-30 10:06:00,
2013-11-30 05:08:00,26.7,26.7,30.49,ENE,75,0.0,0.0,100,0.00,CLR,,0.00,WeatherDisplay:10.37,2013-11-30 10:08:00,
2013-11-30 05:09:00,26.7,26.7,30.49,ENE,75,0.0,0.0,100,0.00,CLR,,0.00,WeatherDisplay:10.37,2013-11-30 10:09:00,
2013-11-30 05:10:00,26.7,26.7,30.49,ENE,75,0.0,0.0,100,0.00,CLR,,0.00,WeatherDisplay:10.37,2013-11-30 10:10:00,
2013-11-30 05:11:00,26.8,26.8,30.49,ENE,75,0.0,0.0,100,0.00,CLR,,0.00,WeatherDisplay:10.37,2013-11-30 10:11:00,
2013-11-30 05:14:00,26.7,26.7,30.49,ENE,75,0.0,0.0,100,0.00,CLR,,0.00,WeatherDisplay:10.37,2013-11-30 10:14:00,
2013-11-30 05:15:00,26.7,26.7,30.49,ENE,75,0.0,0.0,100,0.00,CLR,,0.00,WeatherDisplay:10.37,2013-11-30 10:15:00,
2013-11-30 05:16:00,26.7,26.7,30.50,ENE,75,0.0,0.0,100,0.00,CLR,,0.00,WeatherDisplay:10.37,2013-11-30 10:16:00,
2013-11-30 05:19:00,26.7,26.7,30.49,ENE,75,0.0,0.0,100,0.00,CLR,,0.00,WeatherDisplay:10.37,2013-11-30 10:19:00,
2013-11-30 05:21:00,26.6,26.6,30.49,ENE,75,0.0,0.0,100,0.00,CLR,,0.00,WeatherDisplay:10.37,2013-11-30 10:21:00,
2013-11-30 05:22:00,26.5,26.5,30.49,ENE,75,0.0,0.0,100,0.00,CLR,,0.00,WeatherDisplay:10.37,2013-11-30 10:22:00,
2013-11-30 05:24:00,26.5,26.5,30.49,ENE,75,0.0,0.0,100,0.00,CLR,,0.00,WeatherDisplay:10.37,2013-11-30 10:24:00,
2013-11-30 05:26:00,26.4,26.4,30.49,ENE,75,0.0,0.0,100,0.00,CLR,,0.00,WeatherDisplay:10.37,2013-11-30 10:26:00,
2013-11-30 05:27:00,26.4,26.4,30.49,ENE,75,0.0,0.0,100,0.00,CLR,,0.00,WeatherDisplay:10.37,2013-11-30 10:27:00,
2013-11-30 05:29:00,26.3,26.3,30.49,ENE,75,0.0,0.0,100,0.00,CLR,,0.00,WeatherDisplay:10.37,2013-11-30 10:29:00,
2013-11-30 05:32:00,26.3,26.3,30.49,ENE,75,0.0,0.0,100,0.00,CLR,,0.00,WeatherDisplay:10.37,2013-11-30 10:32:00,
2013-11-30 05:34:00,26.3,26.3,30.50,ENE,75,0.0,0.0,100,0.00,CLR,,0.00,WeatherDisplay:10.37,2013-11-30 10:34:00,
2013-11-30 05:35:00,26.3,26.3,30.50,ENE,75,0.0,0.0,100,0.00,CLR,,0.00,WeatherDisplay:10.37,2013-11-30 10:35:00,
2013-11-30 05:37:00,26.2,26.2,30.50,ENE,75,0.0,0.0,100,0.00,CLR,,0.00,WeatherDisplay:10.37,2013-11-30 10:37:00,
2013-11-30 05:39:00,26.2,26.2,30.50,ENE,75,0.0,0.0,100,0.00,CLR,,0.00,WeatherDisplay:10.37,2013-11-30 10:39:00,
2013-11-30 05:40:00,26.2,26.2,30.50,ENE,75,0.0,0.0,100,0.00,CLR,,0.00,WeatherDisplay:10.37,2013-11-30 10:40:00,
2013-11-30 05:42:00,26.1,26.1,30.50,ENE,75,0.0,0.0,100,0.00,CLR,,0.00,WeatherDisplay:10.37,2013-11-30 10:42:00,
2013-11-30 05:43:00,26.2,26.2,30.50,ENE,75,0.0,0.0,100,0.00,CLR,,0.00,WeatherDisplay:10.37,2013-11-30 10:43:00,
2013-11-30 05:44:00,26.2,26.2,30.50,ENE,75,0.0,0.0,100,0.00,CLR,,0.00,WeatherDisplay:10.37,2013-11-30 10:44:00,
2013-11-30 05:45:00,26.2,26.2,30.50,ENE,75,0.0,0.0,100,0.00,CLR,,0.00,WeatherDisplay:10.37,2013-11-30 10:45:00,
2013-11-30 05:47:00,26.2,26.2,30.49,ENE,75,0.0,0.0,100,0.00,CLR,,0.00,WeatherDisplay:10.37,2013-11-30 10:47:00,
2013-11-30 05:48:00,26.2,26.2,30.49,ENE,75,0.0,0.0,100,0.00,CLR,,0.00,WeatherDisplay:10.37,2013-11-30 10:48:00,
2013-11-30 05:50:00,26.2,26.2,30.50,ENE,75,0.0,0.0,100,0.00,CLR,,0.00,WeatherDisplay:10.37,2013-11-30 10:50:00,
2013-11-30 05:52:00,26.1,26.1,30.50,ENE,75,0.0,0.0,100,0.00,CLR,,0.00,WeatherDisplay:10.37,2013-11-30 10:52:00,
2013-11-30 05:53:00,26.1,26.1,30.49,ENE,75,0.0,0.0,100,0.00,CLR,,0.00,WeatherDisplay:10.37,2013-11-30 10:53:00,
2013-11-30 05:55:00,26.1,26.1,30.50,ENE,75,0.0,0.0,100,0.00,CLR,,0.00,WeatherDisplay:10.37,2013-11-30 10:55:00,
2013-11-30 05:57:00,26.0,26.0,30.50,ENE,75,0.0,0.0,100,0.00,CLR,,0.00,WeatherDisplay:10.37,2013-11-30 10:57:00,
2013-11-30 05:58:00,26.0,26.0,30.50,ENE,75,0.0,0.0,100,0.00,CLR,,0.00,WeatherDisplay:10.37,2013-11-30 10:58:00,
2013-11-30 05:59:00,26.0,26.0,30.50,ENE,75,0.0,0.0,100,0.00,CLR,,0.00,WeatherDisplay:10.37,2013-11-30 10:59:00,
2013-11-30 06:00:00,25.9,25.9,30.50,ENE,75,0.0,0.0,100,0.00,CLR,,0.00,WeatherDisplay:10.37,2013-11-30 11:00:00,
2013-11-30 06:01:00,25.9,25.9,30.50,ENE,75,0.0,0.0,100,0.00,CLR,,0.00,WeatherDisplay:10.37,2013-11-30 11:01:00,
2013-11-30 06:02:00,25.9,25.9,30.50,ENE,75,0.0,0.0,100,0.00,CLR,,0.00,WeatherDisplay:10.37,2013-11-30 11:02:00,
2013-11-30 06:03:00,25.9,25.9,30.50,ENE,75,0.0,0.0,100,0.00,CLR,,0.00,WeatherDisplay:10.37,2013-11-30 11:03:00,
2013-11-30 06:04:00,25.9,25.9,30.50,ENE,75,0.0,0.0,100,0.00,CLR,,0.00,WeatherDisplay:10.37,2013-11-30 11:04:00,
2013-11-30 06:05:00,25.9,25.9,30.50,ENE,75,0.0,0.0,100,0.00,CLR,,0.00,WeatherDisplay:10.37,2013-11-30 11:05:00,
2013-11-30 06:06:00,25.9,25.9,30.50,ENE,75,0.0,0.0,100,0.00,CLR,,0.00,WeatherDisplay:10.37,2013-11-30 11:06:00,
2013-11-30 06:09:00,25.8,25.8,30.50,ENE,75,0.0,0.0,100,0.00,CLR,,0.00,WeatherDisplay:10.37,2013-11-30 11:09:00,
2013-11-30 06:10:00,25.8,25.8,30.50,ENE,75,0.0,0.0,100,0.00,CLR,,0.00,WeatherDisplay:10.37,2013-11-30 11:10:00,
2013-11-30 06:11:00,25.8,25.8,30.50,ENE,75,0.0,0.0,100,0.00,CLR,,0.00,WeatherDisplay:10.37,2013-11-30 11:11:00,
2013-11-30 06:14:00,25.8,25.8,30.50,ENE,75,0.0,0.0,100,0.00,CLR,,0.00,WeatherDisplay:10.37,2013-11-30 11:14:00,
2013-11-30 06:15:00,25.7,25.7,30.49,ENE,75,0.0,0.0,100,0.00,CLR,,0.00,WeatherDisplay:10.37,2013-11-30 11:15:00,
2013-11-30 06:16:00,25.7,25.7,30.50,ENE,75,0.0,0.0,100,0.00,CLR,,0.00,WeatherDisplay:10.37,2013-11-30 11:16:00,
2013-11-30 06:17:00,25.7,25.7,30.50,ENE,75,0.0,0.0,100,0.00,CLR,,0.00,WeatherDisplay:10.37,2013-11-30 11:17:00,
2013-11-30 06:19:00,25.7,25.7,30.50,ENE,75,0.0,0.0,100,0.00,CLR,,0.00,WeatherDisplay:10.37,2013-11-30 11:19:00,
2013-11-30 06:20:00,25.7,25.7,30.50,ENE,75,0.0,0.0,100,0.00,CLR,,0.00,WeatherDisplay:10.37,2013-11-30 11:20:00,
2013-11-30 06:21:00,25.6,25.6,30.50,ENE,75,0.0,0.0,100,0.00,CLR,,0.00,WeatherDisplay:10.37,2013-11-30 11:21:00,
2013-11-30 06:22:00,25.6,25.6,30.50,ENE,75,0.0,0.0,100,0.00,CLR,,0.00,WeatherDisplay:10.37,2013-11-30 11:22:00,
2013-11-30 06:24:00,25.6,25.6,30.50,ENE,75,0.0,0.0,100,0.00,CLR,,0.00,WeatherDisplay:10.37,2013-11-30 11:24:00,
2013-11-30 06:25:00,25.6,25.6,30.50,ENE,75,0.0,0.0,100,0.00,CLR,,0.00,WeatherDisplay:10.37,2013-11-30 11:25:00,
2013-11-30 06:26:00,25.6,25.6,30.50,ENE,75,0.0,0.0,100,0.00,CLR,,0.00,WeatherDisplay:10.37,2013-11-30 11:26:00,
2013-11-30 06:27:00,25.6,25.6,30.50,ENE,75,0.0,0.0,100,0.00,CLR,,0.00,WeatherDisplay:10.37,2013-11-30 11:27:00,
2013-11-30 06:29:00,25.5,25.5,30.50,ENE,75,0.0,0.0,100,0.00,CLR,,0.00,WeatherDisplay:10.37,2013-11-30 11:29:00,
2013-11-30 06:30:00,25.6,25.6,30.50,ENE,75,0.0,0.0,100,0.00,CLR,,0.00,WeatherDisplay:10.37,2013-11-30 11:30:00,
2013-11-30 06:31:00,25.5,25.5,30.50,ENE,75,0.0,0.0,100,0.00,CLR,,0.00,WeatherDisplay:10.37,2013-11-30 11:31:00,
2013-11-30 06:32:00,25.5,25.5,30.50,ENE,75,0.0,0.0,100,0.00,CLR,,0.00,WeatherDisplay:10.37,2013-11-30 11:32:00,
2013-11-30 06:33:00,25.5,25.5,30.50,ENE,75,0.0,0.0,100,0.00,CLR,,0.00,WeatherDisplay:10.37,2013-11-30 11:33:00,
2013-11-30 06:34:00,25.5,25.5,30.50,ENE,75,0.0,0.0,100,0.00,CLR,,0.00,WeatherDisplay:10.37,2013-11-30 11:34:00,
2013-11-30 06:35:00,25.5,25.5,30.50,ENE,75,0.0,0.0,100,0.00,CLR,,0.00,WeatherDisplay:10.37,2013-11-30 11:35:00,
2013-11-30 06:36:00,25.4,25.4,30.50,ENE,75,0.0,0.0,100,0.00,CLR,,0.00,WeatherDisplay:10.37,2013-11-30 11:36:00,
2013-11-30 06:37:00,25.4,25.4,30.50,ENE,75,0.0,0.0,100,0.00,CLR,,0.00,WeatherDisplay:10.37,2013-11-30 11:37:00,
2013-11-30 06:38:00,25.4,25.4,30.50,ENE,75,0.0,0.0,100,0.00,CLR,,0.00,WeatherDisplay:10.37,2013-11-30 11:38:00,
2013-11-30 06:39:00,25.5,25.5,30.50,ENE,75,0.0,0.0,100,0.00,CLR,,0.00,WeatherDisplay:10.37,2013-11-30 11:39:00,
2013-11-30 06:40:00,25.4,25.4,30.50,ENE,75,0.0,0.0,100,0.00,CLR,,0.00,WeatherDisplay:10.37,2013-11-30 11:40:00,
2013-11-30 06:41:00,25.4,25.4,30.50,ENE,75,0.0,0.0,100,0.00,CLR,,0.00,WeatherDisplay:10.37,2013-11-30 11:41:00,
2013-11-30 06:42:00,25.3,25.3,30.50,ENE,75,0.0,0.0,100,0.00,CLR,,0.00,WeatherDisplay:10.37,2013-11-30 11:42:00,
2013-11-30 06:43:00,25.3,25.3,30.50,ENE,75,0.0,0.0,100,0.00,CLR,,0.00,WeatherDisplay:10.37,2013-11-30 11:43:00,
2013-11-30 06:44:00,25.3,25.3,30.50,ENE,75,0.0,0.0,100,0.00,CLR,,0.00,WeatherDisplay:10.37,2013-11-30 11:44:00,
2013-11-30 06:45:00,25.3,25.3,30.50,ENE,75,0.0,0.0,100,0.00,CLR,,0.00,WeatherDisplay:10.37,2013-11-30 11:45:00,
2013-11-30 06:46:00,25.3,25.3,30.50,ENE,75,0.0,0.0,100,0.00,CLR,,0.00,WeatherDisplay:10.37,2013-11-30 11:46:00,
2013-11-30 06:47:00,25.2,25.2,30.50,ENE,75,0.0,0.0,100,0.00,CLR,,0.00,WeatherDisplay:10.37,2013-11-30 11:47:00,
2013-11-30 06:49:00,25.2,25.2,30.50,ENE,75,0.0,0.0,100,0.00,CLR,,0.00,WeatherDisplay:10.37,2013-11-30 11:49:00,
2013-11-30 06:50:00,25.2,25.2,30.50,ENE,75,0.0,0.0,100,0.00,CLR,,0.00,WeatherDisplay:10.37,2013-11-30 11:50:00,
2013-11-30 06:51:00,25.2,25.2,30.50,ENE,75,0.0,0.0,100,0.00,CLR,,0.00,WeatherDisplay:10.37,2013-11-30 11:51:00,
2013-11-30 06:52:00,25.2,25.2,30.50,ENE,75,0.0,0.0,100,0.00,CLR,,0.00,WeatherDisplay:10.37,2013-11-30 11:52:00,
2013-11-30 06:54:00,25.2,25.2,30.50,ENE,75,0.0,0.0,100,0.00,CLR,,0.00,WeatherDisplay:10.37,2013-11-30 11:54:00,
2013-11-30 06:56:00,25.1,25.1,30.50,ENE,75,0.0,0.0,100,0.00,CLR,,0.00,WeatherDisplay:10.37,2013-11-30 11:56:00,
2013-11-30 06:57:00,25.1,25.1,30.50,ENE,75,0.0,0.0,100,0.00,CLR,,0.00,WeatherDisplay:10.37,2013-11-30 11:57:00,
2013-11-30 07:00:00,25.0,25.0,30.51,ENE,75,0.0,0.0,100,0.00,FEW,,0.00,WeatherDisplay:10.37,2013-11-30 12:00:00,
2013-11-30 07:01:00,25.0,25.0,30.50,ENE,75,0.0,0.0,100,0.00,FEW,,0.00,WeatherDisplay:10.37,2013-11-30 12:01:00,
2013-11-30 07:02:00,25.0,25.0,30.50,ENE,75,0.0,0.0,100,0.00,FEW,,0.00,WeatherDisplay:10.37,2013-11-30 12:02:00,
2013-11-30 07:06:00,25.0,25.0,30.51,ENE,75,0.0,0.0,100,0.00,FEW,,0.00,WeatherDisplay:10.37,2013-11-30 12:06:00,
2013-11-30 07:07:00,25.0,25.0,30.51,ENE,75,0.0,0.0,100,0.00,FEW,,0.00,WeatherDisplay:10.37,2013-11-30 12:07:00,
2013-11-30 07:08:00,25.0,25.0,30.51,ENE,75,0.0,0.0,100,0.00,FEW,,0.00,WeatherDisplay:10.37,2013-11-30 12:08:00,
2013-11-30 07:11:00,25.0,25.0,30.51,ENE,75,0.0,0.0,100,0.00,FEW,,0.00,WeatherDisplay:10.37,2013-11-30 12:11:00,
2013-11-30 07:12:00,25.0,25.0,30.51,ENE,75,0.0,0.0,100,0.00,FEW,,0.00,WeatherDisplay:10.37,2013-11-30 12:12:00,
2013-11-30 07:13:00,24.9,24.9,30.50,ENE,75,0.0,0.0,100,0.00,FEW,,0.00,WeatherDisplay:10.37,2013-11-30 12:13:00,
2013-11-30 07:16:00,24.9,24.9,30.50,ENE,75,0.0,0.0,100,0.00,FEW,,0.00,WeatherDisplay:10.37,2013-11-30 12:16:00,
2013-11-30 07:17:00,24.9,24.9,30.50,ENE,75,0.0,0.0,100,0.00,FEW,,0.00,WeatherDisplay:10.37,2013-11-30 12:17:00,
2013-11-30 07:18:00,24.8,24.8,30.50,ENE,75,0.0,0.0,100,0.00,FEW,,0.00,WeatherDisplay:10.37,2013-11-30 12:18:00,
2013-11-30 07:21:00,24.8,24.8,30.50,ENE,75,0.0,0.0,100,0.00,FEW,,0.00,WeatherDisplay:10.37,2013-11-30 12:21:00,
2013-11-30 07:22:00,24.8,24.8,30.50,ENE,75,0.0,0.0,100,0.00,FEW,,0.00,WeatherDisplay:10.37,2013-11-30 12:22:00,
2013-11-30 07:23:00,24.8,24.8,30.50,ENE,75,0.0,0.0,100,0.00,FEW,,0.00,WeatherDisplay:10.37,2013-11-30 12:23:00,
2013-11-30 07:26:00,24.8,24.8,30.50,ENE,75,0.0,0.0,100,0.00,FEW,,0.00,WeatherDisplay:10.37,2013-11-30 12:26:00,
2013-11-30 07:27:00,24.8,24.8,30.50,ENE,75,0.0,0.0,100,0.00,FEW,,0.00,WeatherDisplay:10.37,2013-11-30 12:27:00,
2013-11-30 07:28:00,24.8,24.8,30.50,ENE,75,0.0,0.0,100,0.00,FEW,,0.00,WeatherDisplay:10.37,2013-11-30 12:28:00,
2013-11-30 07:32:00,24.8,24.8,30.51,ENE,75,0.0,0.0,100,0.00,FEW,,0.00,WeatherDisplay:10.37,2013-11-30 12:32:00,
2013-11-30 07:33:00,24.8,24.8,30.50,ENE,75,0.0,0.0,100,0.00,FEW,,0.00,WeatherDisplay:10.37,2013-11-30 12:33:00,
2013-11-30 07:37:00,24.8,24.8,30.50,ENE,75,0.0,0.0,100,0.00,FEW,,0.00,WeatherDisplay:10.37,2013-11-30 12:37:00,
2013-11-30 07:38:00,24.8,24.8,30.51,ENE,75,0.0,0.0,100,0.00,FEW,,0.00,WeatherDisplay:10.37,2013-11-30 12:38:00,
2013-11-30 07:39:00,24.7,24.7,30.50,ENE,75,0.0,0.0,100,0.00,FEW,,0.00,WeatherDisplay:10.37,2013-11-30 12:39:00,
2013-11-30 07:42:00,24.7,24.7,30.51,ENE,76,0.0,0.0,100,0.00,FEW,,0.00,WeatherDisplay:10.37,2013-11-30 12:42:00,
2013-11-30 07:43:00,24.7,24.7,30.51,ENE,75,0.0,0.0,100,0.00,FEW,,0.00,WeatherDisplay:10.37,2013-11-30 12:43:00,
2013-11-30 07:44:00,24.8,24.8,30.51,ENE,75,0.0,0.0,100,0.00,FEW,,0.00,WeatherDisplay:10.37,2013-11-30 12:44:00,
2013-11-30 07:45:00,24.8,24.8,30.51,ENE,75,0.0,0.0,100,0.00,FEW,,0.00,WeatherDisplay:10.37,2013-11-30 12:45:00,
2013-11-30 07:47:00,24.8,24.8,30.50,ENE,76,0.0,0.0,100,0.00,FEW,,0.00,WeatherDisplay:10.37,2013-11-30 12:47:00,
2013-11-30 07:49:00,24.8,24.8,30.51,ENE,75,0.0,0.0,100,0.00,FEW,,0.00,WeatherDisplay:10.37,2013-11-30 12:49:00,
2013-11-30 07:50:00,24.9,24.9,30.51,ENE,75,0.0,0.0,100,0.00,FEW,,0.00,WeatherDisplay:10.37,2013-11-30 12:50:00,
2013-11-30 07:52:00,24.9,24.9,30.51,ENE,75,0.0,0.0,100,0.00,FEW,,0.00,WeatherDisplay:10.37,2013-11-30 12:52:00,
2013-11-30 07:53:00,24.9,24.9,30.51,ENE,75,0.0,0.0,100,0.00,FEW,,0.00,WeatherDisplay:10.37,2013-11-30 12:53:00,
2013-11-30 07:54:00,25.0,25.0,30.51,ENE,75,0.0,0.0,100,0.00,FEW,,0.00,WeatherDisplay:10.37,2013-11-30 12:54:00,
2013-11-30 07:55:00,25.0,25.0,30.51,ENE,75,0.0,0.0,100,0.00,FEW,,0.00,WeatherDisplay:10.37,2013-11-30 12:55:00,
2013-11-30 07:58:00,25.0,25.0,30.51,ENE,75,0.0,0.0,100,0.00,FEW,,0.00,WeatherDisplay:10.37,2013-11-30 12:58:00,
2013-11-30 07:59:00,25.0,25.0,30.51,ENE,76,0.0,0.0,100,0.00,FEW,,0.00,WeatherDisplay:10.37,2013-11-30 12:59:00,
2013-11-30 08:00:00,25.0,25.0,30.51,ENE,76,0.0,0.0,100,0.00,FEW,,0.00,WeatherDisplay:10.37,2013-11-30 13:00:00,
2013-11-30 08:03:00,25.2,25.2,30.51,ENE,76,0.0,0.0,100,0.00,FEW,,0.00,WeatherDisplay:10.37,2013-11-30 13:03:00,
2013-11-30 08:04:00,25.2,25.2,30.51,ENE,75,0.0,0.0,100,0.00,FEW,,0.00,WeatherDisplay:10.37,2013-11-30 13:04:00,
2013-11-30 08:05:00,25.2,25.2,30.52,ENE,76,0.0,0.0,100,0.00,FEW,,0.00,WeatherDisplay:10.37,2013-11-30 13:05:00,
2013-11-30 08:08:00,25.3,25.3,30.52,ENE,76,0.0,0.0,100,0.00,FEW,,0.00,WeatherDisplay:10.37,2013-11-30 13:08:00,
2013-11-30 08:09:00,25.3,25.3,30.51,ENE,76,0.0,0.0,100,0.00,FEW,,0.00,WeatherDisplay:10.37,2013-11-30 13:09:00,
2013-11-30 08:10:00,25.3,25.3,30.52,ENE,76,0.0,0.0,100,0.00,FEW,,0.00,WeatherDisplay:10.37,2013-11-30 13:10:00,
2013-11-30 08:11:00,25.3,25.3,30.52,ENE,76,0.0,0.0,100,0.00,FEW,,0.00,WeatherDisplay:10.37,2013-11-30 13:11:00,
2013-11-30 08:13:00,25.4,25.4,30.52,ENE,76,0.0,0.0,100,0.00,FEW,,0.00,WeatherDisplay:10.37,2013-11-30 13:13:00,
2013-11-30 08:14:00,25.4,25.4,30.52,ENE,76,0.0,0.0,100,0.00,FEW,,0.00,WeatherDisplay:10.37,2013-11-30 13:14:00,
2013-11-30 08:15:00,25.4,25.4,30.52,ENE,76,0.0,0.0,100,0.00,FEW,,0.00,WeatherDisplay:10.37,2013-11-30 13:15:00,
2013-11-30 08:16:00,25.5,25.5,30.52,ENE,76,0.0,0.0,100,0.00,SCT,,0.00,WeatherDisplay:10.37,2013-11-30 13:16:00,
2013-11-30 08:17:00,25.4,25.4,30.52,ENE,76,0.0,0.0,100,0.00,SCT,,0.00,WeatherDisplay:10.37,2013-11-30 13:17:00,
2013-11-30 08:18:00,25.5,25.5,30.52,ENE,75,0.0,0.0,100,0.00,SCT,,0.00,WeatherDisplay:10.37,2013-11-30 13:18:00,
2013-11-30 08:20:00,25.6,25.6,30.52,ENE,76,0.0,0.0,100,0.00,SCT,,0.00,WeatherDisplay:10.37,2013-11-30 13:20:00,
2013-11-30 08:21:00,25.6,25.6,30.52,ENE,76,0.0,0.0,100,0.00,SCT,,0.00,WeatherDisplay:10.37,2013-11-30 13:21:00,
2013-11-30 08:23:00,25.7,25.7,30.52,ENE,76,0.0,0.0,100,0.00,SCT,,0.00,WeatherDisplay:10.37,2013-11-30 13:23:00,
2013-11-30 08:24:00,25.7,25.7,30.52,ENE,76,0.0,0.0,100,0.00,SCT,,0.00,WeatherDisplay:10.37,2013-11-30 13:24:00,
2013-11-30 08:25:00,25.8,25.8,30.52,ENE,76,0.0,0.0,100,0.00,SCT,,0.00,WeatherDisplay:10.37,2013-11-30 13:25:00,
2013-11-30 08:26:00,25.8,25.8,30.52,ENE,76,0.0,0.0,100,0.00,SCT,,0.00,WeatherDisplay:10.37,2013-11-30 13:26:00,
2013-11-30 08:28:00,25.8,25.8,30.52,East,91,0.0,0.0,100,0.00,SCT,,0.00,WeatherDisplay:10.37,2013-11-30 13:28:00,
2013-11-30 08:29:00,25.9,25.9,30.52,East,91,0.0,0.0,100,0.00,SCT,,0.00,WeatherDisplay:10.37,2013-11-30 13:29:00,
2013-11-30 08:30:00,26.0,26.0,30.52,East,91,0.0,0.0,100,0.00,SCT,,0.00,WeatherDisplay:10.37,2013-11-30 13:30:00,
2013-11-30 08:31:00,26.0,26.0,30.52,East,91,0.0,0.0,100,0.00,SCT,,0.00,WeatherDisplay:10.37,2013-11-30 13:31:00,
2013-11-30 08:32:00,26.1,26.1,30.52,East,91,0.0,0.0,100,0.00,SCT,,0.00,WeatherDisplay:10.37,2013-11-30 13:32:00,
2013-11-30 08:33:00,26.1,26.1,30.52,East,91,0.0,0.0,100,0.00,SCT,,0.00,WeatherDisplay:10.37,2013-11-30 13:33:00,
2013-11-30 08:34:00,26.2,26.2,30.52,East,91,0.0,0.0,100,0.00,SCT,,0.00,WeatherDisplay:10.37,2013-11-30 13:34:00,
2013-11-30 08:36:00,26.3,26.3,30.52,East,91,0.0,0.0,100,0.00,SCT,,0.00,WeatherDisplay:10.37,2013-11-30 13:36:00,
2013-11-30 08:37:00,26.3,26.3,30.52,East,91,0.0,0.0,100,0.00,SCT,,0.00,WeatherDisplay:10.37,2013-11-30 13:37:00,
2013-11-30 08:38:00,26.4,26.4,30.52,East,91,0.0,0.0,100,0.00,SCT,,0.00,WeatherDisplay:10.37,2013-11-30 13:38:00,
2013-11-30 08:39:00,26.5,26.5,30.52,East,91,0.0,0.0,100,0.00,SCT,,0.00,WeatherDisplay:10.37,2013-11-30 13:39:00,
2013-11-30 08:41:00,26.5,26.5,30.52,East,91,0.0,0.0,100,0.00,SCT,,0.00,WeatherDisplay:10.37,2013-11-30 13:41:00,
2013-11-30 08:42:00,26.6,26.6,30.52,East,91,0.0,0.0,100,0.00,SCT,,0.00,WeatherDisplay:10.37,2013-11-30 13:42:00,
2013-11-30 08:44:00,26.7,26.7,30.52,East,90,0.0,0.0,100,0.00,SCT,,0.00,WeatherDisplay:10.37,2013-11-30 13:44:00,
2013-11-30 08:46:00,26.9,26.9,30.52,East,91,0.0,0.0,100,0.00,SCT,,0.00,WeatherDisplay:10.37,2013-11-30 13:46:00,
2013-11-30 08:47:00,26.9,26.9,30.52,East,91,0.0,0.0,100,0.00,SCT,,0.00,WeatherDisplay:10.37,2013-11-30 13:47:00,
2013-11-30 08:49:00,27.1,27.1,30.52,East,91,0.2,2.0,100,0.00,SCT,,0.00,WeatherDisplay:10.37,2013-11-30 13:49:00,
2013-11-30 08:51:00,27.2,27.2,30.52,East,90,0.0,2.3,100,0.00,SCT,,0.00,WeatherDisplay:10.37,2013-11-30 13:51:00,
2013-11-30 08:52:00,27.3,27.3,30.52,East,90,0.0,0.0,100,0.00,SCT,,0.00,WeatherDisplay:10.37,2013-11-30 13:52:00,
2013-11-30 08:54:00,27.3,27.3,30.52,East,91,0.0,0.0,100,0.00,SCT,,0.00,WeatherDisplay:10.37,2013-11-30 13:54:00,
2013-11-30 08:57:00,27.4,27.4,30.52,East,91,0.0,0.0,100,0.00,SCT,,0.00,WeatherDisplay:10.37,2013-11-30 13:57:00,
2013-11-30 08:58:00,27.5,27.5,30.52,East,91,0.0,0.0,100,0.00,SCT,,0.00,WeatherDisplay:10.37,2013-11-30 13:58:00,
2013-11-30 08:59:00,27.6,27.6,30.52,East,91,0.0,0.0,100,0.00,SCT,,0.00,WeatherDisplay:10.37,2013-11-30 13:59:00,
2013-11-30 09:02:00,27.8,27.8,30.52,East,94,0.0,0.0,100,0.00,SCT,,0.00,WeatherDisplay:10.37,2013-11-30 14:02:00,
2013-11-30 09:03:00,27.9,27.9,30.52,East,94,0.0,0.0,100,0.00,SCT,,0.00,WeatherDisplay:10.37,2013-11-30 14:03:00,
2013-11-30 09:04:00,28.0,28.0,30.53,East,95,0.0,0.0,100,0.00,SCT,,0.00,WeatherDisplay:10.37,2013-11-30 14:04:00,
2013-11-30 09:06:00,28.1,28.1,30.53,East,95,0.0,0.0,100,0.00,SCT,,0.00,WeatherDisplay:10.37,2013-11-30 14:06:00,
2013-11-30 09:07:00,28.2,28.2,30.53,East,97,0.0,0.0,100,0.00,SCT,,0.00,WeatherDisplay:10.37,2013-11-30 14:07:00,
2013-11-30 09:08:00,28.3,28.3,30.53,East,97,0.0,0.0,100,0.00,SCT,,0.00,WeatherDisplay:10.37,2013-11-30 14:08:00,
2013-11-30 09:09:00,28.6,28.6,30.53,East,97,0.0,0.0,100,0.00,SCT,,0.00,WeatherDisplay:10.37,2013-11-30 14:09:00,
2013-11-30 09:10:00,28.5,28.5,30.52,East,97,0.0,0.0,100,0.00,SCT,,0.00,WeatherDisplay:10.37,2013-11-30 14:10:00,
2013-11-30 09:11:00,28.5,28.5,30.52,East,98,0.0,0.0,100,0.00,SCT,,0.00,WeatherDisplay:10.37,2013-11-30 14:11:00,
2013-11-30 09:12:00,28.6,28.6,30.52,East,98,0.0,0.0,100,0.00,SCT,,0.00,WeatherDisplay:10.37,2013-11-30 14:12:00,
2013-11-30 09:14:00,28.8,28.8,30.52,ESE,109,0.0,0.0,100,0.00,SCT,,0.00,WeatherDisplay:10.37,2013-11-30 14:14:00,
2013-11-30 09:16:00,28.9,28.9,30.52,ESE,109,0.0,0.0,100,0.00,BKN,,0.00,WeatherDisplay:10.37,2013-11-30 14:16:00,
2013-11-30 09:17:00,29.2,29.2,30.52,ESE,109,0.0,0.0,100,0.00,BKN,,0.00,WeatherDisplay:10.37,2013-11-30 14:17:00,
2013-11-30 09:19:00,29.3,29.3,30.52,ESE,114,0.0,0.0,100,0.00,BKN,,0.00,WeatherDisplay:10.37,2013-11-30 14:19:00,
2013-11-30 09:20:00,29.4,29.4,30.52,SE,128,0.0,0.0,100,0.00,BKN,,0.00,WeatherDisplay:10.37,2013-11-30 14:20:00,
2013-11-30 09:21:00,29.8,29.8,30.52,SSW,196,1.5,3.5,100,0.00,BKN,,0.00,WeatherDisplay:10.37,2013-11-30 14:21:00,
2013-11-30 09:22:00,29.9,29.9,30.52,SSW,196,0.0,3.5,100,0.00,BKN,,0.00,WeatherDisplay:10.37,2013-11-30 14:22:00,
2013-11-30 09:24:00,30.1,30.1,30.52,SSW,196,0.4,2.3,100,0.00,BKN,,0.00,WeatherDisplay:10.37,2013-11-30 14:24:00,
2013-11-30 09:25:00,30.2,30.2,30.52,SSW,196,0.0,2.3,100,0.00,BKN,,0.00,WeatherDisplay:10.37,2013-11-30 14:25:00,
2013-11-30 09:26:00,30.3,30.3,30.52,SSW,196,0.0,0.0,100,0.00,BKN,,0.00,WeatherDisplay:10.37,2013-11-30 14:26:00,
2013-11-30 09:27:00,30.3,30.3,30.52,SSW,196,0.0,0.0,100,0.00,BKN,,0.00,WeatherDisplay:10.37,2013-11-30 14:27:00,
2013-11-30 09:29:00,30.5,30.5,30.52,SSW,196,0.1,1.0,100,0.00,BKN,,0.00,WeatherDisplay:10.37,2013-11-30 14:29:00,
2013-11-30 09:30:00,30.5,30.5,30.52,SSW,196,0.7,0.0,100,0.00,BKN,,0.00,WeatherDisplay:10.37,2013-11-30 14:30:00,
2013-11-30 09:32:00,30.7,30.7,30.52,SSW,196,0.0,0.0,100,0.00,BKN,,0.00,WeatherDisplay:10.37,2013-11-30 14:32:00,
2013-11-30 09:33:00,30.7,30.7,30.52,SSW,196,0.0,0.0,100,0.00,BKN,,0.00,WeatherDisplay:10.37,2013-11-30 14:33:00,
2013-11-30 09:35:00,30.9,30.9,30.52,SSW,196,0.0,0.0,100,0.00,BKN,,0.00,WeatherDisplay:10.37,2013-11-30 14:35:00,
2013-11-30 09:37:00,31.0,31.0,30.52,SSW,196,0.0,0.0,100,0.00,BKN,,0.00,WeatherDisplay:10.37,2013-11-30 14:37:00,
2013-11-30 09:38:00,31.1,31.1,30.52,SSW,196,0.0,0.0,100,0.00,BKN,,0.00,WeatherDisplay:10.37,2013-11-30 14:38:00,
2013-11-30 09:40:00,31.3,31.3,30.52,SSW,196,0.0,0.0,100,0.00,BKN,,0.00,WeatherDisplay:10.37,2013-11-30 14:40:00,
2013-11-30 09:42:00,31.5,31.5,30.52,SSW,196,0.0,0.0,100,0.00,BKN,,0.00,WeatherDisplay:10.37,2013-11-30 14:42:00,
2013-11-30 09:43:00,31.6,31.6,30.52,SSW,196,0.0,0.0,100,0.00,BKN,,0.00,WeatherDisplay:10.37,2013-11-30 14:43:00,
2013-11-30 09:45:00,31.8,31.8,30.52,SSW,196,0.0,0.0,100,0.00,BKN,,0.00,WeatherDisplay:10.37,2013-11-30 14:45:00,
2013-11-30 09:46:00,31.9,31.9,30.52,SSW,196,0.0,0.0,100,0.00,BKN,,0.00,WeatherDisplay:10.37,2013-11-30 14:46:00,
2013-11-30 09:47:00,32.0,32.0,30.52,SSW,196,0.0,0.0,100,0.00,BKN,,0.00,WeatherDisplay:10.37,2013-11-30 14:47:00,
2013-11-30 09:48:00,32.1,32.1,30.52,SSW,196,0.0,0.0,100,0.00,BKN,,0.00,WeatherDisplay:10.37,2013-11-30 14:48:00,
2013-11-30 09:51:00,32.4,32.4,30.52,SSW,196,0.0,0.0,100,0.00,BKN,,0.00,WeatherDisplay:10.37,2013-11-30 14:51:00,
2013-11-30 09:52:00,32.6,32.6,30.52,SSW,196,0.0,1.1,100,0.00,BKN,,0.00,WeatherDisplay:10.37,2013-11-30 14:52:00,
2013-11-30 09:53:00,32.6,32.6,30.52,SSW,196,0.0,1.1,100,0.00,BKN,,0.00,WeatherDisplay:10.37,2013-11-30 14:53:00,
2013-11-30 09:54:00,32.7,32.7,30.52,SSW,196,0.0,0.0,100,0.00,BKN,,0.00,WeatherDisplay:10.37,2013-11-30 14:54:00,
2013-11-30 09:56:00,33.0,33.0,30.52,SSW,195,0.0,0.0,100,0.00,BKN,,0.00,WeatherDisplay:10.37,2013-11-30 14:56:00,
2013-11-30 09:57:00,33.0,33.0,30.52,SSW,195,0.0,0.0,100,0.00,BKN,,0.00,WeatherDisplay:10.37,2013-11-30 14:57:00,
2013-11-30 09:58:00,33.1,33.1,30.52,SSW,195,0.0,0.0,100,0.00,BKN,,0.00,WeatherDisplay:10.37,2013-11-30 14:58:00,
2013-11-30 09:59:00,33.2,33.2,30.52,SSW,195,0.0,0.0,100,0.00,BKN,,0.00,WeatherDisplay:10.37,2013-11-30 14:59:00,
2013-11-30 10:01:00,33.4,33.4,30.52,SSW,194,0.0,0.0,100,0.00,BKN,,0.00,WeatherDisplay:10.37,2013-11-30 15:01:00,
2013-11-30 10:03:00,33.6,33.6,30.52,SSW,194,0.0,0.0,100,0.00,BKN,,0.00,WeatherDisplay:10.37,2013-11-30 15:03:00,
2013-11-30 10:04:00,33.7,33.7,30.52,SE,133,0.1,1.1,100,0.00,BKN,,0.00,WeatherDisplay:10.37,2013-11-30 15:04:00,
2013-11-30 10:07:00,34.0,34.0,30.52,SE,131,0.0,0.0,100,0.00,BKN,,0.00,WeatherDisplay:10.37,2013-11-30 15:07:00,
2013-11-30 10:08:00,34.1,34.1,30.52,SE,125,0.0,0.0,100,0.00,BKN,,0.00,WeatherDisplay:10.37,2013-11-30 15:08:00,
2013-11-30 10:09:00,34.2,34.2,30.53,SE,124,0.0,0.0,100,0.00,BKN,,0.00,WeatherDisplay:10.37,2013-11-30 15:09:00,
2013-11-30 10:12:00,34.5,34.5,30.53,East,94,0.0,1.1,100,0.00,BKN,,0.00,WeatherDisplay:10.37,2013-11-30 15:12:00,
2013-11-30 10:13:00,34.5,34.5,30.53,East,94,0.0,0.0,100,0.00,BKN,,0.00,WeatherDisplay:10.37,2013-11-30 15:13:00,
2013-11-30 10:14:00,34.6,34.6,30.53,East,94,0.0,0.0,100,0.00,BKN,,0.00,WeatherDisplay:10.37,2013-11-30 15:14:00,
2013-11-30 10:17:00,34.9,34.9,30.52,East,94,0.0,0.0,100,0.00,BKN,,0.00,WeatherDisplay:10.37,2013-11-30 15:17:00,
2013-11-30 10:18:00,34.9,34.9,30.52,East,95,0.0,0.0,100,0.00,BKN,,0.00,WeatherDisplay:10.37,2013-11-30 15:18:00,
2013-11-30 10:19:00,35.1,35.1,30.52,East,94,0.0,1.0,100,0.00,BKN,,0.00,WeatherDisplay:10.37,2013-11-30 15:19:00,
2013-11-30 10:22:00,35.3,35.3,30.52,ENE,62,1.1,3.5,100,0.00,BKN,,0.00,WeatherDisplay:10.37,2013-11-30 15:22:00,
2013-11-30 10:23:00,35.3,35.3,30.52,ENE,62,1.3,3.5,100,0.00,BKN,,0.00,WeatherDisplay:10.37,2013-11-30 15:23:00,
2013-11-30 10:24:00,35.4,35.4,30.52,ENE,62,1.6,3.5,100,0.00,BKN,,0.00,WeatherDisplay:10.37,2013-11-30 15:24:00,
2013-11-30 10:26:00,35.5,35.5,30.52,ENE,62,0.0,2.3,100,0.00,BKN,,0.00,WeatherDisplay:10.37,2013-11-30 15:26:00,
2013-11-30 10:28:00,35.7,35.7,30.52,ENE,62,0.0,0.0,100,0.00,BKN,,0.00,WeatherDisplay:10.37,2013-11-30 15:28:00,
2013-11-30 10:29:00,35.8,35.8,30.52,ENE,62,0.0,0.0,100,0.00,BKN,,0.00,WeatherDisplay:10.37,2013-11-30 15:29:00,
2013-11-30 10:31:00,36.0,36.0,30.52,ENE,62,0.0,0.0,100,0.00,BKN,,0.00,WeatherDisplay:10.37,2013-11-30 15:31:00,
2013-11-30 10:33:00,36.3,36.3,30.52,ENE,62,0.0,0.0,100,0.00,BKN,,0.00,WeatherDisplay:10.37,2013-11-30 15:33:00,
2013-11-30 10:34:00,36.4,36.4,30.52,ESE,105,0.2,0.0,100,0.00,BKN,,0.00,WeatherDisplay:10.37,2013-11-30 15:34:00,
2013-11-30 10:35:00,36.6,36.6,30.52,ESE,113,0.0,0.0,100,0.00,BKN,,0.00,WeatherDisplay:10.37,2013-11-30 15:35:00,
2013-11-30 10:36:00,36.6,36.6,30.52,ESE,113,0.0,0.0,100,0.00,BKN,,0.00,WeatherDisplay:10.37,2013-11-30 15:36:00,
2013-11-30 10:38:00,36.9,36.9,30.52,ESE,113,0.0,0.0,100,0.00,BKN,,0.00,WeatherDisplay:10.37,2013-11-30 15:38:00,
2013-11-30 10:39:00,37.0,37.0,30.52,ESE,113,0.0,0.0,100,0.00,BKN,,0.00,WeatherDisplay:10.37,2013-11-30 15:39:00,
2013-11-30 10:40:00,37.1,37.1,30.52,ESE,113,0.0,0.0,100,0.00,BKN,,0.00,WeatherDisplay:10.37,2013-11-30 15:40:00,
2013-11-30 10:41:00,37.1,37.1,30.53,ESE,113,0.0,0.0,100,0.00,BKN,,0.00,WeatherDisplay:10.37,2013-11-30 15:41:00,
2013-11-30 10:43:00,37.3,37.3,30.52,ESE,112,0.0,0.0,100,0.00,BKN,,0.00,WeatherDisplay:10.37,2013-11-30 15:43:00,
2013-11-30 10:44:00,37.3,37.3,30.53,ESE,104,0.0,0.0,100,0.00,BKN,,0.00,WeatherDisplay:10.37,2013-11-30 15:44:00,
2013-11-30 10:45:00,37.4,37.4,30.52,East,88,0.0,0.0,100,0.00,BKN,,0.00,WeatherDisplay:10.37,2013-11-30 15:45:00,
2013-11-30 10:46:00,37.5,37.5,30.52,East,88,0.0,0.0,100,0.00,BKN,,0.00,WeatherDisplay:10.37,2013-11-30 15:46:00,
2013-11-30 10:49:00,37.7,37.7,30.53,East,88,0.0,0.0,100,0.00,BKN,,0.00,WeatherDisplay:10.37,2013-11-30 15:49:00,
2013-11-30 10:50:00,37.8,37.8,30.52,East,88,0.0,0.0,100,0.00,BKN,,0.00,WeatherDisplay:10.37,2013-11-30 15:50:00,
2013-11-30 10:51:00,37.9,37.9,30.52,SSE,156,0.3,4.0,100,0.00,BKN,,0.00,WeatherDisplay:10.37,2013-11-30 15:51:00,
2013-11-30 10:54:00,38.2,38.2,30.52,SW,217,3.3,4.6,100,0.00,BKN,,0.00,WeatherDisplay:10.37,2013-11-30 15:54:00,
2013-11-30 10:55:00,38.4,38.4,30.52,SW,216,0.0,0.0,100,0.00,BKN,,0.00,WeatherDisplay:10.37,2013-11-30 15:55:00,
2013-11-30 10:56:00,38.5,38.5,30.52,SW,216,1.1,1.1,100,0.00,BKN,,0.00,WeatherDisplay:10.37,2013-11-30 15:56:00,
2013-11-30 10:59:00,38.8,38.8,30.52,SW,219,0.0,2.3,100,0.00,BKN,,0.00,WeatherDisplay:10.37,2013-11-30 15:59:00,
2013-11-30 11:01:00,38.9,38.9,30.53,ESE,121,2.0,4.6,100,0.00,SCT,,0.00,WeatherDisplay:10.37,2013-11-30 16:01:00,
2013-11-30 11:04:00,39.3,39.3,30.52,South,170,0.0,2.3,100,0.00,SCT,,0.00,WeatherDisplay:10.37,2013-11-30 16:04:00,
2013-11-30 11:06:00,39.6,39.6,30.51,SE,126,3.0,3.5,100,0.00,SCT,,0.00,WeatherDisplay:10.37,2013-11-30 16:06:00,
2013-11-30 11:07:00,39.7,39.7,30.52,SE,132,2.4,4.6,100,0.00,SCT,,0.00,WeatherDisplay:10.37,2013-11-30 16:07:00,
2013-11-30 11:10:00,39.9,39.9,30.51,SE,125,0.7,0.0,100,0.00,SCT,,0.00,WeatherDisplay:10.37,2013-11-30 16:10:00,
2013-11-30 11:11:00,40.1,40.1,30.53,SE,124,0.0,3.5,100,0.00,SCT,,0.00,WeatherDisplay:10.37,2013-11-30 16:11:00,
2013-11-30 11:12:00,40.2,40.2,30.51,SE,125,0.0,0.0,100,0.00,SCT,,0.00,WeatherDisplay:10.37,2013-11-30 16:12:00,
2013-11-30 11:15:00,40.6,40.6,30.51,SSW,192,0.3,3.5,100,0.00,SCT,,0.00,WeatherDisplay:10.37,2013-11-30 16:15:00,
2013-11-30 11:16:00,40.8,40.8,30.51,SSE,164,0.0,0.0,100,0.00,SCT,,0.00,WeatherDisplay:10.37,2013-11-30 16:16:00,
2013-11-30 11:17:00,40.8,40.8,30.52,SE,125,0.0,0.0,100,0.00,SCT,,0.00,WeatherDisplay:10.37,2013-11-30 16:17:00,
2013-11-30 11:20:00,41.0,41.0,30.52,South,177,0.0,2.3,100,0.00,SCT,,0.00,WeatherDisplay:10.37,2013-11-30 16:20:00,
2013-11-30 11:21:00,41.2,41.2,30.50,SW,233,2.9,5.8,100,0.00,SCT,,0.00,WeatherDisplay:10.37,2013-11-30 16:21:00,
2013-11-30 11:22:00,41.2,41.2,30.52,SSW,203,3.2,5.8,100,0.00,SCT,,0.00,WeatherDisplay:10.37,2013-11-30 16:22:00,
2013-11-30 11:24:00,41.4,41.4,30.50,East,97,2.1,3.5,100,0.00,SCT,,0.00,WeatherDisplay:10.37,2013-11-30 16:24:00,
2013-11-30 11:25:00,41.5,41.5,30.50,East,97,0.4,3.5,100,0.00,SCT,,0.00,WeatherDisplay:10.37,2013-11-30 16:25:00,
2013-11-30 11:26:00,41.7,41.7,30.50,ESE,106,0.0,0.0,100,0.00,SCT,,0.00,WeatherDisplay:10.37,2013-11-30 16:26:00,
2013-11-30 11:27:00,41.8,41.8,30.50,ESE,118,0.0,0.0,100,0.00,SCT,,0.00,WeatherDisplay:10.37,2013-11-30 16:27:00,
2013-11-30 11:29:00,42.0,42.0,30.50,SW,220,0.0,0.0,100,0.00,SCT,,0.00,WeatherDisplay:10.37,2013-11-30 16:29:00,
2013-11-30 11:30:00,42.1,42.1,30.50,WSW,249,1.4,3.0,100,0.00,SCT,,0.00,WeatherDisplay:10.37,2013-11-30 16:30:00,
2013-11-30 11:31:00,42.2,42.2,30.50,SSW,198,3.4,9.0,100,0.00,SCT,,0.00,WeatherDisplay:10.37,2013-11-30 16:31:00,
2013-11-30 11:32:00,42.2,42.2,30.50,SSW,193,4.4,9.0,100,0.00,SCT,,0.00,WeatherDisplay:10.37,2013-11-30 16:32:00,
2013-11-30 11:35:00,42.4,42.4,30.50,South,186,3.4,6.9,100,0.00,SCT,,0.00,WeatherDisplay:10.37,2013-11-30 16:35:00,
2013-11-30 11:36:00,42.4,42.4,30.50,South,184,6.3,10.4,100,0.00,SCT,,0.00,WeatherDisplay:10.37,2013-11-30 16:36:00,
2013-11-30 11:37:00,42.5,42.5,30.50,SSW,203,7.7,10.4,100,0.00,SCT,,0.00,WeatherDisplay:10.37,2013-11-30 16:37:00,
2013-11-30 11:40:00,42.7,42.7,30.50,SW,222,3.2,5.8,100,0.00,SCT,,0.00,WeatherDisplay:10.37,2013-11-30 16:40:00,
2013-11-30 11:42:00,42.8,42.8,30.50,South,189,7.0,8.1,100,0.00,SCT,,0.00,WeatherDisplay:10.37,2013-11-30 16:42:00,
2013-11-30 11:45:00,43.1,43.1,30.49,SW,219,3.3,5.8,100,0.00,SCT,,0.00,WeatherDisplay:10.37,2013-11-30 16:45:00,
2013-11-30 11:46:00,43.2,43.2,30.50,SW,216,4.2,5.8,100,0.00,SCT,,0.00,WeatherDisplay:10.37,2013-11-30 16:46:00,
2013-11-30 11:47:00,43.2,43.2,30.50,WSW,237,5.2,7.0,100,0.00,SCT,,0.00,WeatherDisplay:10.37,2013-11-30 16:47:00,
2013-11-30 11:50:00,43.5,43.5,30.49,SSW,200,4.3,6.9,100,0.00,SCT,,0.00,WeatherDisplay:10.37,2013-11-30 16:50:00,
2013-11-30 11:51:00,43.5,43.5,30.49,WSW,255,3.9,6.9,100,0.00,SCT,,0.00,WeatherDisplay:10.37,2013-11-30 16:51:00,
2013-11-30 11:52:00,43.6,43.6,30.49,WSW,238,4.6,8.1,100,0.00,SCT,,0.00,WeatherDisplay:10.37,2013-11-30 16:52:00,
2013-11-30 11:53:00,43.7,43.7,30.49,WSW,244,4.7,5.8,100,0.00,SCT,,0.00,WeatherDisplay:10.37,2013-11-30 16:53:00,
2013-11-30 11:55:00,43.7,43.7,30.49,SSW,210,1.3,5.0,100,0.00,SCT,,0.00,WeatherDisplay:10.37,2013-11-30 16:55:00,
2013-11-30 11:56:00,43.7,43.7,30.49,SSW,208,3.2,4.6,100,0.00,SCT,,0.00,WeatherDisplay:10.37,2013-11-30 16:56:00,
2013-11-30 11:57:00,43.7,43.7,30.49,SSW,208,0.7,4.6,100,0.00,SCT,,0.00,WeatherDisplay:10.37,2013-11-30 16:57:00,
2013-11-30 11:58:00,43.6,43.6,30.49,SSW,196,0.2,1.1,100,0.00,SCT,,0.00,WeatherDisplay:10.37,2013-11-30 16:58:00,
2013-11-30 12:00:00,43.8,43.8,30.48,WSW,240,3.9,6.9,100,0.00,SCT,,0.00,WeatherDisplay:10.37,2013-11-30 17:00:00,
2013-11-30 12:01:00,43.8,43.8,30.49,SSW,207,2.4,3.5,100,0.00,SCT,,0.00,WeatherDisplay:10.37,2013-11-30 17:01:00,
2013-11-30 12:02:00,43.9,43.9,30.49,South,184,2.1,3.5,100,0.00,SCT,,0.00,WeatherDisplay:10.37,2013-11-30 17:02:00,
2013-11-30 12:03:00,44.0,44.0,30.48,South,181,4.2,5.8,100,0.00,SCT,,0.00,WeatherDisplay:10.37,2013-11-30 17:03:00,
2013-11-30 12:04:00,44.1,44.1,30.48,South,173,3.3,5.8,100,0.00,SCT,,0.00,WeatherDisplay:10.37,2013-11-30 17:04:00,
2013-11-30 12:06:00,44.3,44.3,30.48,South,177,0.5,6.9,100,0.00,SCT,,0.00,WeatherDisplay:10.37,2013-11-30 17:06:00,
2013-11-30 12:07:00,44.4,44.4,30.48,SSW,207,4.7,6.9,100,0.00,SCT,,0.00,WeatherDisplay:10.37,2013-11-30 17:07:00,
2013-11-30 12:08:00,44.5,44.5,30.48,SW,215,2.9,6.9,100,0.00,SCT,,0.00,WeatherDisplay:10.37,2013-11-30 17:08:00,
2013-11-30 12:09:00,44.7,44.7,30.48,WSW,247,2.1,3.5,100,0.00,SCT,,0.00,WeatherDisplay:10.37,2013-11-30 17:09:00,
2013-11-30 12:11:00,44.9,44.9,30.48,SW,229,2.6,4.6,100,0.00,SCT,,0.00,WeatherDisplay:10.37,2013-11-30 17:11:00,
2013-11-30 12:12:00,45.1,45.1,30.48,SW,222,0.4,5.8,100,0.00,SCT,,0.00,WeatherDisplay:10.37,2013-11-30 17:12:00,
2013-11-30 12:13:00,45.2,45.2,30.48,SSW,197,2.7,4.6,100,0.00,SCT,,0.00,WeatherDisplay:10.37,2013-11-30 17:13:00,
2013-11-30 12:14:00,45.3,45.3,30.48,South,172,0.7,3.5,100,0.00,SCT,,0.00,WeatherDisplay:10.37,2013-11-30 17:14:00,
2013-11-30 12:15:00,45.3,45.3,30.47,South,182,1.5,6.0,100,0.00,SCT,,0.00,WeatherDisplay:10.37,2013-11-30 17:15:00,
2013-11-30 12:16:00,45.4,45.4,30.47,SSW,194,4.9,6.9,100,0.00,SCT,,0.00,WeatherDisplay:10.37,2013-11-30 17:16:00,
2013-11-30 12:17:00,45.5,45.5,30.47,SSW,200,5.6,8.1,100,0.00,SCT,,0.00,WeatherDisplay:10.37,2013-11-30 17:17:00,
2013-11-30 12:19:00,45.5,45.5,30.47,South,191,2.5,5.0,100,0.00,SCT,,0.00,WeatherDisplay:10.37,2013-11-30 17:19:00,
2013-11-30 12:20:00,45.6,45.6,30.47,South,180,1.9,5.8,100,0.00,SCT,,0.00,WeatherDisplay:10.37,2013-11-30 17:20:00,
2013-11-30 12:21:00,45.8,45.8,30.47,South,181,0.0,3.5,100,0.00,SCT,,0.00,WeatherDisplay:10.37,2013-11-30 17:21:00,
2013-11-30 12:22:00,45.9,45.9,30.47,South,178,0.0,0.0,100,0.00,SCT,,0.00,WeatherDisplay:10.37,2013-11-30 17:22:00,
2013-11-30 12:24:00,46.1,46.1,30.47,WSW,239,0.4,4.0,100,0.00,SCT,,0.00,WeatherDisplay:10.37,2013-11-30 17:24:00,
2013-11-30 12:25:00,46.1,46.1,30.46,West,281,5.2,5.2,100,0.00,SCT,,0.00,WeatherDisplay:10.37,2013-11-30 17:25:00,
2013-11-30 12:26:00,46.0,46.0,30.46,West,276,6.1,6.9,100,0.00,SCT,,0.00,WeatherDisplay:10.37,2013-11-30 17:26:00,
2013-11-30 12:27:00,45.9,45.9,30.46,WNW,288,5.3,8.1,100,0.00,SCT,,0.00,WeatherDisplay:10.37,2013-11-30 17:27:00,
2013-11-30 12:29:00,45.7,45.7,30.46,WSW,243,3.1,4.6,100,0.00,SCT,,0.00,WeatherDisplay:10.37,2013-11-30 17:29:00,
2013-11-30 12:30:00,45.7,45.7,30.46,WSW,255,3.2,4.6,100,0.00,SCT,,0.00,WeatherDisplay:10.37,2013-11-30 17:30:00,
2013-11-30 12:31:00,45.7,45.7,30.46,West,264,2.9,4.6,100,0.00,SCT,,0.00,WeatherDisplay:10.37,2013-11-30 17:31:00,
2013-11-30 12:32:00,45.7,45.7,30.46,WSW,240,4.6,6.9,100,0.00,SCT,,0.00,WeatherDisplay:10.37,2013-11-30 17:32:00,
2013-11-30 12:34:00,45.8,45.8,30.46,SW,221,3.2,4.6,100,0.00,SCT,,0.00,WeatherDisplay:10.37,2013-11-30 17:34:00,
2013-11-30 12:36:00,46.0,46.0,30.46,WSW,256,3.3,5.8,100,0.00,SCT,,0.00,WeatherDisplay:10.37,2013-11-30 17:36:00,
2013-11-30 12:37:00,46.0,46.0,30.46,West,273,3.6,4.6,100,0.00,SCT,,0.00,WeatherDisplay:10.37,2013-11-30 17:37:00,
2013-11-30 12:38:00,46.1,46.1,30.46,WNW,298,3.6,5.8,100,0.00,SCT,,0.00,WeatherDisplay:10.37,2013-11-30 17:38:00,
2013-11-30 12:39:00,46.1,46.1,30.46,SW,233,4.4,6.9,100,0.00,SCT,,0.00,WeatherDisplay:10.37,2013-11-30 17:39:00,
2013-11-30 12:41:00,46.2,46.2,30.46,WSW,243,5.1,5.8,100,0.00,SCT,,0.00,WeatherDisplay:10.37,2013-11-30 17:41:00,
2013-11-30 12:42:00,46.3,46.3,30.46,SW,233,2.8,5.8,100,0.00,SCT,,0.00,WeatherDisplay:10.37,2013-11-30 17:42:00,
2013-11-30 12:43:00,46.4,46.4,30.46,WSW,251,0.5,4.0,100,0.00,SCT,,0.00,WeatherDisplay:10.37,2013-11-30 17:43:00,
2013-11-30 12:44:00,46.5,46.5,30.46,WSW,257,3.2,4.6,100,0.00,SCT,,0.00,WeatherDisplay:10.37,2013-11-30 17:44:00,
2013-11-30 12:46:00,46.5,46.5,30.46,SW,218,2.0,3.5,100,0.00,SCT,,0.00,WeatherDisplay:10.37,2013-11-30 17:46:00,
2013-11-30 12:47:00,46.6,46.6,30.46,WSW,250,2.2,3.5,100,0.00,SCT,,0.00,WeatherDisplay:10.37,2013-11-30 17:47:00,
2013-11-30 12:48:00,46.6,46.6,30.46,WSW,251,2.5,3.5,100,0.00,SCT,,0.00,WeatherDisplay:10.37,2013-11-30 17:48:00,
2013-11-30 12:49:00,46.7,46.7,30.46,West,273,0.5,4.0,100,0.00,SCT,,0.00,WeatherDisplay:10.37,2013-11-30 17:49:00,
2013-11-30 12:51:00,46.9,46.9,30.46,WSW,238,0.4,2.3,100,0.00,SCT,,0.00,WeatherDisplay:10.37,2013-11-30 17:51:00,
2013-11-30 12:52:00,47.0,47.0,30.45,SSW,206,0.8,3.0,100,0.00,SCT,,0.00,WeatherDisplay:10.37,2013-11-30 17:52:00,
2013-11-30 12:53:00,47.1,47.1,30.46,SSW,208,4.6,5.8,100,0.00,SCT,,0.00,WeatherDisplay:10.37,2013-11-30 17:53:00,
2013-11-30 12:54:00,47.3,47.3,30.45,SW,224,3.0,4.6,100,0.00,SCT,,0.00,WeatherDisplay:10.37,2013-11-30 17:54:00,
2013-11-30 12:56:00,47.5,47.5,30.45,SW,227,0.0,3.5,100,0.00,SCT,,0.00,WeatherDisplay:10.37,2013-11-30 17:56:00,
2013-11-30 12:57:00,47.5,47.5,30.45,SW,228,0.0,3.5,100,0.00,SCT,,0.00,WeatherDisplay:10.37,2013-11-30 17:57:00,
2013-11-30 12:58:00,47.6,47.6,30.45,SW,228,0.0,0.0,100,0.00,SCT,,0.00,WeatherDisplay:10.37,2013-11-30 17:58:00,
2013-11-30 12:59:00,47.7,47.7,30.45,SW,228,0.0,0.0,100,0.00,SCT,,0.00,WeatherDisplay:10.37,2013-11-30 17:59:00,
2013-11-30 13:00:00,47.7,47.7,30.45,SE,129,0.0,0.0,100,0.00,SCT,,0.00,WeatherDisplay:10.37,2013-11-30 18:00:00,
2013-11-30 13:02:00,47.8,47.8,30.45,WSW,242,2.4,3.5,100,0.00,SCT,,0.00,WeatherDisplay:10.37,2013-11-30 18:02:00,
2013-11-30 13:03:00,47.9,47.9,30.44,SW,231,3.9,6.0,100,0.00,SCT,,0.00,WeatherDisplay:10.37,2013-11-30 18:03:00,
2013-11-30 13:04:00,48.0,48.0,30.44,WSW,248,5.4,6.0,100,0.00,SCT,,0.00,WeatherDisplay:10.37,2013-11-30 18:04:00,
2013-11-30 13:05:00,48.0,48.0,30.44,WSW,253,5.2,5.8,100,0.00,SCT,,0.00,WeatherDisplay:10.37,2013-11-30 18:05:00,
2013-11-30 13:07:00,48.0,48.0,30.44,West,262,3.0,3.5,100,0.00,SCT,,0.00,WeatherDisplay:10.37,2013-11-30 18:07:00,
2013-11-30 13:09:00,48.0,48.0,30.44,SSW,210,0.8,3.5,100,0.00,SCT,,0.00,WeatherDisplay:10.37,2013-11-30 18:09:00,
2013-11-30 13:10:00,48.0,48.0,30.44,SSW,210,0.0,3.5,100,0.00,SCT,,0.00,WeatherDisplay:10.37,2013-11-30 18:10:00,
2013-11-30 13:11:00,48.1,48.1,30.44,SSW,210,0.0,0.0,100,0.00,SCT,,0.00,WeatherDisplay:10.37,2013-11-30 18:11:00,
2013-11-30 13:12:00,48.4,48.4,30.43,South,173,0.0,0.0,100,0.00,SCT,,0.00,WeatherDisplay:10.37,2013-11-30 18:12:00,
2013-11-30 13:15:00,48.8,48.8,30.44,ESE,121,2.5,5.8,100,0.00,SCT,,0.00,WeatherDisplay:10.37,2013-11-30 18:15:00,
2013-11-30 13:16:00,49.0,49.0,30.43,SSE,162,0.7,3.5,100,0.00,SCT,,0.00,WeatherDisplay:10.37,2013-11-30 18:16:00,
2013-11-30 13:17:00,49.2,49.2,30.43,South,182,0.4,2.3,100,0.00,SCT,,0.00,WeatherDisplay:10.37,2013-11-30 18:17:00,
2013-11-30 13:20:00,49.6,49.6,30.43,SE,129,0.0,1.1,100,0.00,SCT,,0.00,WeatherDisplay:10.37,2013-11-30 18:20:00,
2013-11-30 13:21:00,49.6,49.6,30.43,SSW,198,0.0,0.0,100,0.00,SCT,,0.00,WeatherDisplay:10.37,2013-11-30 18:21:00,
2013-11-30 13:22:00,49.7,49.7,30.43,SE,138,0.0,0.0,100,0.00,SCT,,0.00,WeatherDisplay:10.37,2013-11-30 18:22:00,
2013-11-30 13:23:00,49.8,49.8,30.43,SSE,151,0.1,1.1,100,0.00,SCT,,0.00,WeatherDisplay:10.37,2013-11-30 18:23:00,
2013-11-30 13:25:00,49.9,49.9,30.43,SE,139,0.1,0.0,100,0.00,SCT,,0.00,WeatherDisplay:10.37,2013-11-30 18:25:00,
2013-11-30 13:26:00,49.9,49.9,30.43,South,182,0.0,0.0,100,0.00,SCT,,0.00,WeatherDisplay:10.37,2013-11-30 18:26:00,
2013-11-30 13:27:00,49.9,49.9,30.43,South,183,0.0,0.0,100,0.00,SCT,,0.00,WeatherDisplay:10.37,2013-11-30 18:27:00,
2013-11-30 13:28:00,50.0,50.0,30.43,ESE,114,0.0,1.1,100,0.00,SCT,,0.00,WeatherDisplay:10.37,2013-11-30 18:28:00,
2013-11-30 13:30:00,50.2,50.2,30.43,SE,125,5.1,5.8,100,0.00,SCT,,0.00,WeatherDisplay:10.37,2013-11-30 18:30:00,
2013-11-30 13:32:00,50.3,50.3,30.43,ESE,113,4.0,5.8,100,0.00,SCT,,0.00,WeatherDisplay:10.37,2013-11-30 18:32:00,
2013-11-30 13:33:00,50.3,50.3,30.42,ESE,104,3.2,4.6,100,0.00,SCT,,0.00,WeatherDisplay:10.37,2013-11-30 18:33:00,
2013-11-30 13:35:00,50.4,50.4,30.42,East,101,3.8,5.8,100,0.00,SCT,,0.00,WeatherDisplay:10.37,2013-11-30 18:35:00,
2013-11-30 13:36:00,50.3,50.3,30.42,East,96,3.8,7.0,100,0.00,SCT,,0.00,WeatherDisplay:10.37,2013-11-30 18:36:00,
2013-11-30 13:37:00,50.4,50.4,30.42,ESE,103,4.3,6.9,100,0.00,SCT,,0.00,WeatherDisplay:10.37,2013-11-30 18:37:00,
2013-11-30 13:39:00,50.5,50.5,30.42,ESE,104,0.7,3.5,100,0.00,SCT,,0.00,WeatherDisplay:10.37,2013-11-30 18:39:00,
2013-11-30 13:41:00,50.6,50.6,30.42,South,179,1.7,3.5,100,0.00,SCT,,0.00,WeatherDisplay:10.37,2013-11-30 18:41:00,
2013-11-30 13:42:00,50.6,50.6,30.42,East,101,0.0,0.0,100,0.00,SCT,,0.00,WeatherDisplay:10.37,2013-11-30 18:42:00,
2013-11-30 13:43:00,50.7,50.7,30.42,ESE,122,0.3,3.0,100,0.00,SCT,,0.00,WeatherDisplay:10.37,2013-11-30 18:43:00,
2013-11-30 13:45:00,50.7,50.7,30.42,ESE,119,5.0,6.9,100,0.00,SCT,,0.00,WeatherDisplay:10.37,2013-11-30 18:45:00,
2013-11-30 13:46:00,50.7,50.7,30.42,ESE,107,3.4,5.8,100,0.00,SCT,,0.00,WeatherDisplay:10.37,2013-11-30 18:46:00,
2013-11-30 13:47:00,50.9,50.9,30.42,South,173,0.3,3.0,100,0.00,SCT,,0.00,WeatherDisplay:10.37,2013-11-30 18:47:00,
2013-11-30 13:48:00,51.0,51.0,30.42,South,182,1.0,3.5,100,0.00,SCT,,0.00,WeatherDisplay:10.37,2013-11-30 18:48:00,
2013-11-30 13:50:00,51.0,51.0,30.42,SSW,192,3.1,5.8,100,0.00,SCT,,0.00,WeatherDisplay:10.37,2013-11-30 18:50:00,
2013-11-30 13:51:00,51.1,51.1,30.42,SSW,192,0.7,4.6,100,0.00,SCT,,0.00,WeatherDisplay:10.37,2013-11-30 18:51:00,
2013-11-30 13:53:00,51.3,51.3,30.42,SE,145,0.0,0.0,100,0.00,SCT,,0.00,WeatherDisplay:10.37,2013-11-30 18:53:00,
2013-11-30 13:54:00,51.5,51.5,30.42,SSE,148,0.0,0.0,100,0.00,SCT,,0.00,WeatherDisplay:10.37,2013-11-30 18:54:00,
2013-11-30 13:55:00,51.7,51.7,30.42,ESE,113,1.0,3.5,100,0.00,SCT,,0.00,WeatherDisplay:10.37,2013-11-30 18:55:00,
2013-11-30 13:56:00,51.7,51.7,30.42,ESE,113,0.6,3.5,100,0.00,SCT,,0.00,WeatherDisplay:10.37,2013-11-30 18:56:00,
2013-11-30 13:58:00,52.0,52.0,30.41,ESE,114,2.9,3.5,100,0.00,SCT,,0.00,WeatherDisplay:10.37,2013-11-30 18:58:00,
2013-11-30 13:59:00,52.0,52.0,30.41,South,191,3.1,5.0,100,0.00,SCT,,0.00,WeatherDisplay:10.37,2013-11-30 18:59:00,
2013-11-30 14:00:00,52.0,52.0,30.41,SSW,197,2.3,6.0,100,0.00,SCT,,0.00,WeatherDisplay:10.37,2013-11-30 19:00:00,
2013-11-30 14:01:00,52.1,52.1,30.41,SSW,200,3.6,5.8,100,0.00,SCT,,0.00,WeatherDisplay:10.37,2013-11-30 19:01:00,
2013-11-30 14:03:00,52.1,52.1,30.41,SSW,203,1.5,4.6,100,0.00,SCT,,0.00,WeatherDisplay:10.37,2013-11-30 19:03:00,
2013-11-30 14:04:00,51.9,51.9,30.41,SSW,208,2.9,4.0,100,0.00,SCT,,0.00,WeatherDisplay:10.37,2013-11-30 19:04:00,
2013-11-30 14:05:00,51.9,51.9,30.41,SSW,209,3.3,3.5,100,0.00,SCT,,0.00,WeatherDisplay:10.37,2013-11-30 19:05:00,
2013-11-30 14:06:00,51.9,51.9,30.40,SSW,209,0.1,4.6,100,0.00,SCT,,0.00,WeatherDisplay:10.37,2013-11-30 19:06:00,
2013-11-30 14:08:00,51.6,51.6,30.41,SSW,209,0.0,0.0,100,0.00,SCT,,0.00,WeatherDisplay:10.37,2013-11-30 19:08:00,
2013-11-30 14:10:00,51.5,51.5,30.41,SSW,192,0.8,3.5,100,0.00,SCT,,0.00,WeatherDisplay:10.37,2013-11-30 19:10:00,
2013-11-30 14:11:00,51.6,51.6,30.40,ESE,117,0.4,3.0,100,0.00,SCT,,0.00,WeatherDisplay:10.37,2013-11-30 19:11:00,
2013-11-30 14:13:00,51.7,51.7,30.40,SSW,194,3.7,6.9,100,0.00,SCT,,0.00,WeatherDisplay:10.37,2013-11-30 19:13:00,
2013-11-30 14:15:00,51.7,51.7,30.40,SE,127,1.2,5.0,100,0.00,SCT,,0.00,WeatherDisplay:10.37,2013-11-30 19:15:00,
2013-11-30 14:16:00,51.7,51.7,30.40,SE,126,3.2,4.6,100,0.00,SCT,,0.00,WeatherDisplay:10.37,2013-11-30 19:16:00,
2013-11-30 14:19:00,51.7,51.7,30.40,SE,134,1.0,4.6,100,0.00,SCT,,0.00,WeatherDisplay:10.37,2013-11-30 19:19:00,
2013-11-30 14:20:00,51.6,51.6,30.39,SE,141,0.0,1.1,100,0.00,SCT,,0.00,WeatherDisplay:10.37,2013-11-30 19:20:00,
2013-11-30 14:21:00,51.6,51.6,30.39,SSE,162,1.8,3.0,100,0.00,SCT,,0.00,WeatherDisplay:10.37,2013-11-30 19:21:00,
2013-11-30 14:22:00,51.7,51.7,30.39,South,186,2.4,5.0,100,0.00,SCT,,0.00,WeatherDisplay:10.37,2013-11-30 19:22:00,
2013-11-30 14:24:00,51.8,51.8,30.39,South,177,0.0,3.5,100,0.00,SCT,,0.00,WeatherDisplay:10.37,2013-11-30 19:24:00,
2013-11-30 14:25:00,51.8,51.8,30.39,South,177,0.0,0.0,100,0.00,SCT,,0.00,WeatherDisplay:10.37,2013-11-30 19:25:00,
2013-11-30 14:26:00,51.9,51.9,30.39,ESE,121,0.0,0.0,100,0.00,SCT,,0.00,WeatherDisplay:10.37,2013-11-30 19:26:00,
2013-11-30 14:27:00,52.0,52.0,30.39,East,94,0.0,0.0,100,0.00,SCT,,0.00,WeatherDisplay:10.37,2013-11-30 19:27:00,
2013-11-30 14:29:00,52.1,52.1,30.39,South,181,0.6,4.6,100,0.00,SCT,,0.00,WeatherDisplay:10.37,2013-11-30 19:29:00,
2013-11-30 14:31:00,52.1,52.1,30.39,ESE,123,1.9,3.5,100,0.00,SCT,,0.00,WeatherDisplay:10.37,2013-11-30 19:31:00,
2013-11-30 14:32:00,52.1,52.1,30.39,SE,125,0.0,3.5,100,0.00,SCT,,0.00,WeatherDisplay:10.37,2013-11-30 19:32:00,
2013-11-30 14:34:00,52.2,52.2,30.39,SSW,204,3.0,4.6,100,0.00,SCT,,0.00,WeatherDisplay:10.37,2013-11-30 19:34:00,
2013-11-30 14:36:00,52.3,52.3,30.39,SSW,211,0.2,1.1,100,0.00,SCT,,0.00,WeatherDisplay:10.37,2013-11-30 19:36:00,
2013-11-30 14:37:00,52.4,52.4,30.39,WSW,241,2.0,3.5,100,0.00,SCT,,0.00,WeatherDisplay:10.37,2013-11-30 19:37:00,
2013-11-30 14:39:00,52.2,52.2,30.39,SW,231,2.4,4.6,100,0.00,SCT,,0.00,WeatherDisplay:10.37,2013-11-30 19:39:00,
2013-11-30 14:41:00,52.1,52.1,30.38,SSE,156,0.2,3.5,100,0.00,SCT,,0.00,WeatherDisplay:10.37,2013-11-30 19:41:00,
2013-11-30 14:42:00,52.1,52.1,30.38,SE,143,0.4,4.0,100,0.00,SCT,,0.00,WeatherDisplay:10.37,2013-11-30 19:42:00,
2013-11-30 14:43:00,52.1,52.1,30.38,ESE,116,1.7,4.6,100,0.00,SCT,,0.00,WeatherDisplay:10.37,2013-11-30 19:43:00,
2013-11-30 14:44:00,52.1,52.1,30.38,ESE,117,3.8,4.6,100,0.00,SCT,,0.00,WeatherDisplay:10.37,2013-11-30 19:44:00,
2013-11-30 14:47:00,52.3,52.3,30.38,ESE,110,0.5,4.6,100,0.00,SCT,,0.00,WeatherDisplay:10.37,2013-11-30 19:47:00,
2013-11-30 14:48:00,52.5,52.5,30.38,ESE,110,0.0,2.3,100,0.00,SCT,,0.00,WeatherDisplay:10.37,2013-11-30 19:48:00,
2013-11-30 14:49:00,52.6,52.6,30.38,ESE,108,2.7,5.0,100,0.00,SCT,,0.00,WeatherDisplay:10.37,2013-11-30 19:49:00,
2013-11-30 14:52:00,53.0,53.0,30.38,ESE,106,0.5,3.5,100,0.00,SCT,,0.00,WeatherDisplay:10.37,2013-11-30 19:52:00,
2013-11-30 14:53:00,53.1,53.1,30.38,ESE,114,0.0,2.3,100,0.00,SCT,,0.00,WeatherDisplay:10.37,2013-11-30 19:53:00,
2013-11-30 14:54:00,53.2,53.2,30.38,ESE,116,0.2,1.1,100,0.00,SCT,,0.00,WeatherDisplay:10.37,2013-11-30 19:54:00,
2013-11-30 14:57:00,53.4,53.4,30.37,SE,124,3.2,5.8,100,0.00,SCT,,0.00,WeatherDisplay:10.37,2013-11-30 19:57:00,
2013-11-30 14:58:00,53.3,53.3,30.38,SE,124,2.4,5.8,100,0.00,SCT,,0.00,WeatherDisplay:10.37,2013-11-30 19:58:00,
2013-11-30 15:00:00,53.4,53.4,30.37,SE,126,3.1,6.0,100,0.00,SCT,,0.00,WeatherDisplay:10.37,2013-11-30 20:00:00,
2013-11-30 15:02:00,53.4,53.4,30.37,ESE,117,4.9,6.9,100,0.00,SCT,,0.00,WeatherDisplay:10.37,2013-11-30 20:02:00,
2013-11-30 15:03:00,53.4,53.4,30.37,SE,131,4.5,6.9,100,0.00,SCT,,0.00,WeatherDisplay:10.37,2013-11-30 20:03:00,
2013-11-30 15:05:00,53.4,53.4,30.37,South,189,5.7,8.1,100,0.00,SCT,,0.00,WeatherDisplay:10.37,2013-11-30 20:05:00,
2013-11-30 15:06:00,53.4,53.4,30.38,SW,219,3.3,8.1,100,0.00,SCT,,0.00,WeatherDisplay:10.37,2013-11-30 20:06:00,
2013-11-30 15:08:00,53.3,53.3,30.37,SSW,205,0.3,3.5,100,0.00,SCT,,0.00,WeatherDisplay:10.37,2013-11-30 20:08:00,
2013-11-30 15:09:00,53.3,53.3,30.37,South,182,1.3,3.5,100,0.00,SCT,,0.00,WeatherDisplay:10.37,2013-11-30 20:09:00,
2013-11-30 15:10:00,53.3,53.3,30.37,SE,142,0.2,3.5,100,0.00,SCT,,0.00,WeatherDisplay:10.37,2013-11-30 20:10:00,
2013-11-30 15:12:00,53.5,53.5,30.37,SSW,203,0.0,0.0,100,0.00,SCT,,0.00,WeatherDisplay:10.37,2013-11-30 20:12:00,
2013-11-30 15:13:00,53.5,53.5,30.37,SW,217,1.6,3.5,100,0.00,SCT,,0.00,WeatherDisplay:10.37,2013-11-30 20:13:00,
2013-11-30 15:14:00,53.5,53.5,30.37,SW,217,0.3,3.5,100,0.00,SCT,,0.00,WeatherDisplay:10.37,2013-11-30 20:14:00,
2013-11-30 15:15:00,53.5,53.5,30.37,SW,226,1.2,0.0,100,0.00,SCT,,0.00,WeatherDisplay:10.37,2013-11-30 20:15:00,
2013-11-30 15:17:00,53.6,53.6,30.37,SE,131,1.1,3.0,100,0.00,SCT,,0.00,WeatherDisplay:10.37,2013-11-30 20:17:00,
2013-11-30 15:19:00,53.6,53.6,30.37,South,184,3.0,5.8,100,0.00,SCT,,0.00,WeatherDisplay:10.37,2013-11-30 20:19:00,
2013-11-30 15:20:00,53.5,53.5,30.37,SSE,148,1.0,5.8,100,0.00,SCT,,0.00,WeatherDisplay:10.37,2013-11-30 20:20:00,
2013-11-30 15:22:00,53.3,53.3,30.36,South,173,0.0,0.0,100,0.00,SCT,,0.00,WeatherDisplay:10.37,2013-11-30 20:22:00,
2013-11-30 15:24:00,53.2,53.2,30.37,SSW,208,1.5,3.0,100,0.00,SCT,,0.00,WeatherDisplay:10.37,2013-11-30 20:24:00,
2013-11-30 15:25:00,53.2,53.2,30.36,SE,131,0.7,4.0,100,0.00,SCT,,0.00,WeatherDisplay:10.37,2013-11-30 20:25:00,
2013-11-30 15:26:00,53.2,53.2,30.36,SE,126,1.8,3.5,100,0.00,SCT,,0.00,WeatherDisplay:10.37,2013-11-30 20:26:00,
2013-11-30 15:27:00,53.2,53.2,30.36,SE,142,1.4,3.5,100,0.00,SCT,,0.00,WeatherDisplay:10.37,2013-11-30 20:27:00,
2013-11-30 15:30:00,53.2,53.2,30.36,South,186,0.4,5.8,100,0.00,SCT,,0.00,WeatherDisplay:10.37,2013-11-30 20:30:00,
2013-11-30 15:31:00,53.2,53.2,30.36,SE,143,0.5,3.5,100,0.00,SCT,,0.00,WeatherDisplay:10.37,2013-11-30 20:31:00,
2013-11-30 15:32:00,53.3,53.3,30.36,SE,126,3.2,4.6,100,0.00,SCT,,0.00,WeatherDisplay:10.37,2013-11-30 20:32:00,
2013-11-30 15:35:00,53.3,53.3,30.36,South,189,5.0,7.0,100,0.00,SCT,,0.00,WeatherDisplay:10.37,2013-11-30 20:35:00,
2013-11-30 15:36:00,53.2,53.2,30.36,South,185,3.3,8.1,100,0.00,SCT,,0.00,WeatherDisplay:10.37,2013-11-30 20:36:00,
2013-11-30 15:37:00,53.2,53.2,30.36,SSW,196,1.2,3.5,100,0.00,SCT,,0.00,WeatherDisplay:10.37,2013-11-30 20:37:00,
2013-11-30 15:40:00,53.3,53.3,30.36,SSW,196,0.0,0.0,100,0.00,SCT,,0.00,WeatherDisplay:10.37,2013-11-30 20:40:00,
2013-11-30 15:41:00,53.4,53.4,30.36,SSW,195,0.0,1.1,100,0.00,SCT,,0.00,WeatherDisplay:10.37,2013-11-30 20:41:00,
2013-11-30 15:42:00,53.5,53.5,30.36,SSW,196,0.0,0.0,100,0.00,SCT,,0.00,WeatherDisplay:10.37,2013-11-30 20:42:00,
2013-11-30 15:43:00,53.5,53.5,30.36,SSW,195,0.0,0.0,100,0.00,SCT,,0.00,WeatherDisplay:10.37,2013-11-30 20:43:00,
2013-11-30 15:45:00,53.4,53.4,30.36,WSW,239,3.5,6.9,100,0.00,SCT,,0.00,WeatherDisplay:10.37,2013-11-30 20:45:00,
2013-11-30 15:46:00,53.3,53.3,30.36,WSW,248,4.4,6.9,100,0.00,SCT,,0.00,WeatherDisplay:10.37,2013-11-30 20:46:00,
2013-11-30 15:47:00,53.1,53.1,30.36,WSW,253,2.5,4.6,100,0.00,SCT,,0.00,WeatherDisplay:10.37,2013-11-30 20:47:00,
2013-11-30 15:48:00,53.0,53.0,30.36,WSW,239,0.7,4.6,100,0.00,SCT,,0.00,WeatherDisplay:10.37,2013-11-30 20:48:00,
2013-11-30 15:50:00,52.9,52.9,30.36,SSW,210,1.7,5.8,100,0.00,SCT,,0.00,WeatherDisplay:10.37,2013-11-30 20:50:00,
2013-11-30 15:51:00,52.8,52.8,30.36,WSW,256,0.6,5.8,100,0.00,SCT,,0.00,WeatherDisplay:10.37,2013-11-30 20:51:00,
2013-11-30 15:52:00,52.7,52.7,30.35,WSW,257,0.0,2.3,100,0.00,SCT,,0.00,WeatherDisplay:10.37,2013-11-30 20:52:00,
2013-11-30 15:53:00,52.6,52.6,30.36,WSW,243,2.7,3.5,100,0.00,SCT,,0.00,WeatherDisplay:10.37,2013-11-30 20:53:00,
2013-11-30 15:55:00,52.4,52.4,30.36,WSW,244,0.9,3.5,100,0.00,SCT,,0.00,WeatherDisplay:10.37,2013-11-30 20:55:00,
2013-11-30 15:56:00,52.4,52.4,30.36,SW,222,3.8,5.0,100,0.00,SCT,,0.00,WeatherDisplay:10.37,2013-11-30 20:56:00,
2013-11-30 15:57:00,52.4,52.4,30.36,SW,227,2.0,4.6,100,0.00,SCT,,0.00,WeatherDisplay:10.37,2013-11-30 20:57:00,
2013-11-30 15:58:00,52.4,52.4,30.36,SW,227,1.6,4.6,100,0.00,SCT,,0.00,WeatherDisplay:10.37,2013-11-30 20:58:00,
2013-11-30 16:00:00,52.4,52.4,30.36,South,191,2.6,4.0,100,0.00,SCT,,0.00,WeatherDisplay:10.37,2013-11-30 21:00:00,
2013-11-30 16:01:00,52.4,52.4,30.36,SSW,193,1.7,3.5,100,0.00,SCT,,0.00,WeatherDisplay:10.37,2013-11-30 21:01:00,
2013-11-30 16:02:00,52.4,52.4,30.36,SW,230,1.3,3.5,100,0.00,SCT,,0.00,WeatherDisplay:10.37,2013-11-30 21:02:00,
2013-11-30 16:03:00,52.3,52.3,30.36,WSW,242,3.7,5.0,100,0.00,SCT,,0.00,WeatherDisplay:10.37,2013-11-30 21:03:00,
2013-11-30 16:05:00,52.1,52.1,30.36,SW,231,0.0,3.5,100,0.00,SCT,,0.00,WeatherDisplay:10.37,2013-11-30 21:05:00,
2013-11-30 16:06:00,52.1,52.1,30.36,SW,231,0.0,0.0,100,0.00,SCT,,0.00,WeatherDisplay:10.37,2013-11-30 21:06:00,
2013-11-30 16:07:00,52.1,52.1,30.36,SW,231,0.1,0.0,100,0.00,SCT,,0.00,WeatherDisplay:10.37,2013-11-30 21:07:00,
2013-11-30 16:08:00,52.1,52.1,30.36,SW,233,1.6,3.0,100,0.00,SCT,,0.00,WeatherDisplay:10.37,2013-11-30 21:08:00,
2013-11-30 16:09:00,52.1,52.1,30.36,WSW,244,3.6,4.0,100,0.00,SCT,,0.00,WeatherDisplay:10.37,2013-11-30 21:09:00,
2013-11-30 16:10:00,52.0,52.0,30.36,SW,226,4.8,6.9,100,0.00,SCT,,0.00,WeatherDisplay:10.37,2013-11-30 21:10:00,
2013-11-30 16:12:00,52.0,52.0,30.36,SW,235,4.4,6.9,100,0.00,SCT,,0.00,WeatherDisplay:10.37,2013-11-30 21:12:00,
2013-11-30 16:13:00,51.9,51.9,30.36,SW,232,1.2,5.8,100,0.00,SCT,,0.00,WeatherDisplay:10.37,2013-11-30 21:13:00,
2013-11-30 16:14:00,51.9,51.9,30.35,SSW,199,0.1,2.3,100,0.00,SCT,,0.00,WeatherDisplay:10.37,2013-11-30 21:14:00,
2013-11-30 16:15:00,51.9,51.9,30.35,SSW,198,0.0,0.0,100,0.00,SCT,,0.00,WeatherDisplay:10.37,2013-11-30 21:15:00,
2013-11-30 16:17:00,52.0,52.0,30.36,SSW,201,1.9,4.0,100,0.00,SCT,,0.00,WeatherDisplay:10.37,2013-11-30 21:17:00,
2013-11-30 16:18:00,52.0,52.0,30.35,SSW,195,0.8,3.5,100,0.00,SCT,,0.00,WeatherDisplay:10.37,2013-11-30 21:18:00,
2013-11-30 16:19:00,52.1,52.1,30.35,SSW,195,0.0,0.0,100,0.00,SCT,,0.00,WeatherDisplay:10.37,2013-11-30 21:19:00,
2013-11-30 16:20:00,52.1,52.1,30.35,SSW,195,0.0,0.0,100,0.00,SCT,,0.00,WeatherDisplay:10.37,2013-11-30 21:20:00,
2013-11-30 16:21:00,52.1,52.1,30.35,SSW,195,0.0,0.0,100,0.00,SCT,,0.00,WeatherDisplay:10.37,2013-11-30 21:21:00,
2013-11-30 16:22:00,52.2,52.2,30.35,SSW,195,0.0,0.0,100,0.00,SCT,,0.00,WeatherDisplay:10.37,2013-11-30 21:22:00,
2013-11-30 16:23:00,52.2,52.2,30.35,SSW,195,0.1,2.0,100,0.00,SCT,,0.00,WeatherDisplay:10.37,2013-11-30 21:23:00,
2013-11-30 16:25:00,52.2,52.2,30.35,SSW,195,1.0,3.5,100,0.00,SCT,,0.00,WeatherDisplay:10.37,2013-11-30 21:25:00,
2013-11-30 16:26:00,52.1,52.1,30.35,SSW,210,1.7,3.5,100,0.00,SCT,,0.00,WeatherDisplay:10.37,2013-11-30 21:26:00,
2013-11-30 16:27:00,52.0,52.0,30.35,SSW,211,0.0,0.0,100,0.00,SCT,,0.00,WeatherDisplay:10.37,2013-11-30 21:27:00,
2013-11-30 16:28:00,51.9,51.9,30.35,SSW,211,0.0,0.0,100,0.00,SCT,,0.00,WeatherDisplay:10.37,2013-11-30 21:28:00,
2013-11-30 16:30:00,51.7,51.7,30.35,SW,225,1.4,2.0,100,0.00,SCT,,0.00,WeatherDisplay:10.37,2013-11-30 21:30:00,
2013-11-30 16:31:00,51.6,51.6,30.35,SW,236,0.3,3.5,100,0.00,SCT,,0.00,WeatherDisplay:10.37,2013-11-30 21:31:00,
2013-11-30 16:32:00,51.5,51.5,30.35,SW,235,0.0,0.0,100,0.00,SCT,,0.00,WeatherDisplay:10.37,2013-11-30 21:32:00,
2013-11-30 16:33:00,51.4,51.4,30.35,SW,229,0.0,0.0,100,0.00,SCT,,0.00,WeatherDisplay:10.37,2013-11-30 21:33:00,
2013-11-30 16:35:00,51.4,51.4,30.35,SW,223,0.0,0.0,100,0.00,SCT,,0.00,WeatherDisplay:10.37,2013-11-30 21:35:00,
2013-11-30 16:36:00,51.3,51.3,30.35,SW,223,0.0,0.0,100,0.00,SCT,,0.00,WeatherDisplay:10.37,2013-11-30 21:36:00,
2013-11-30 16:37:00,51.3,51.3,30.35,SW,223,0.0,0.0,100,0.00,SCT,,0.00,WeatherDisplay:10.37,2013-11-30 21:37:00,
2013-11-30 16:38:00,51.2,51.2,30.35,SW,222,0.0,0.0,100,0.00,SCT,,0.00,WeatherDisplay:10.37,2013-11-30 21:38:00,
2013-11-30 16:40:00,50.8,50.8,30.35,SW,222,0.0,0.0,100,0.00,SCT,,0.00,WeatherDisplay:10.37,2013-11-30 21:40:00,
2013-11-30 16:41:00,50.7,50.7,30.35,SW,223,0.0,0.0,100,0.00,SCT,,0.00,WeatherDisplay:10.37,2013-11-30 21:41:00,
2013-11-30 16:42:00,50.6,50.6,30.35,SW,223,0.0,0.0,100,0.00,SCT,,0.00,WeatherDisplay:10.37,2013-11-30 21:42:00,
2013-11-30 16:43:00,50.5,50.5,30.35,SW,222,0.0,0.0,100,0.00,SCT,,0.00,WeatherDisplay:10.37,2013-11-30 21:43:00,
2013-11-30 16:45:00,50.2,50.2,30.35,SW,222,0.0,0.0,100,0.00,SCT,,0.00,WeatherDisplay:10.37,2013-11-30 21:45:00,
2013-11-30 16:46:00,50.1,50.1,30.35,SW,223,0.0,0.0,100,0.00,SCT,,0.00,WeatherDisplay:10.37,2013-11-30 21:46:00,
2013-11-30 16:47:00,50.1,50.1,30.35,SW,223,0.0,0.0,100,0.00,SCT,,0.00,WeatherDisplay:10.37,2013-11-30 21:47:00,
2013-11-30 16:48:00,50.0,50.0,30.35,SW,222,0.0,0.0,100,0.00,SCT,,0.00,WeatherDisplay:10.37,2013-11-30 21:48:00,
2013-11-30 16:49:00,50.0,50.0,30.35,SW,223,0.0,0.0,100,0.00,SCT,,0.00,WeatherDisplay:10.37,2013-11-30 21:49:00,
2013-11-30 16:51:00,49.9,49.9,30.35,SW,223,0.0,0.0,100,0.00,SCT,,0.00,WeatherDisplay:10.37,2013-11-30 21:51:00,
2013-11-30 16:52:00,49.8,49.8,30.35,SW,223,0.0,0.0,100,0.00,SCT,,0.00,WeatherDisplay:10.37,2013-11-30 21:52:00,
2013-11-30 16:53:00,49.8,49.8,30.35,SW,223,0.0,0.0,100,0.00,SCT,,0.00,WeatherDisplay:10.37,2013-11-30 21:53:00,
2013-11-30 16:54:00,49.7,49.7,30.35,SW,223,0.0,0.0,100,0.00,SCT,,0.00,WeatherDisplay:10.37,2013-11-30 21:54:00,
2013-11-30 16:56:00,49.6,49.6,30.34,SW,223,0.0,0.0,100,0.00,SCT,,0.00,WeatherDisplay:10.37,2013-11-30 21:56:00,
2013-11-30 16:57:00,49.6,49.6,30.34,SW,223,0.0,0.0,100,0.00,SCT,,0.00,WeatherDisplay:10.37,2013-11-30 21:57:00,
2013-11-30 16:58:00,49.5,49.5,30.35,SW,223,0.0,0.0,100,0.00,SCT,,0.00,WeatherDisplay:10.37,2013-11-30 21:58:00,
2013-11-30 16:59:00,49.5,49.5,30.34,SW,223,0.0,0.0,100,0.00,SCT,,0.00,WeatherDisplay:10.37,2013-11-30 21:59:00,
2013-11-30 17:02:00,49.4,49.4,30.34,SW,223,0.0,0.0,100,0.00,SCT,,0.00,WeatherDisplay:10.37,2013-11-30 22:02:00,
2013-11-30 17:03:00,49.3,49.3,30.34,SW,223,0.0,0.0,100,0.00,SCT,,0.00,WeatherDisplay:10.37,2013-11-30 22:03:00,
2013-11-30 17:05:00,49.2,49.2,30.34,SW,222,0.0,0.0,100,0.00,SCT,,0.00,WeatherDisplay:10.37,2013-11-30 22:05:00,
2013-11-30 17:07:00,48.9,48.9,30.34,SW,223,0.0,0.0,100,0.00,SCT,,0.00,WeatherDisplay:10.37,2013-11-30 22:07:00,
2013-11-30 17:08:00,48.8,48.8,30.34,SW,222,0.0,0.0,100,0.00,SCT,,0.00,WeatherDisplay:10.37,2013-11-30 22:08:00,
2013-11-30 17:10:00,48.6,48.6,30.34,SW,222,0.0,0.0,100,0.00,SCT,,0.00,WeatherDisplay:10.37,2013-11-30 22:10:00,
2013-11-30 17:12:00,48.2,48.2,30.34,SW,222,0.0,0.0,100,0.00,SCT,,0.00,WeatherDisplay:10.37,2013-11-30 22:12:00,
2013-11-30 17:13:00,48.2,48.2,30.34,SW,223,0.0,0.0,100,0.00,SCT,,0.00,WeatherDisplay:10.37,2013-11-30 22:13:00,
2013-11-30 17:14:00,48.2,48.2,30.34,SW,223,0.0,0.0,100,0.00,SCT,,0.00,WeatherDisplay:10.37,2013-11-30 22:14:00,
2013-11-30 17:15:00,47.9,47.9,30.34,SW,223,0.0,0.0,100,0.00,SCT,,0.00,WeatherDisplay:10.37,2013-11-30 22:15:00,
2013-11-30 17:17:00,47.9,47.9,30.34,SW,223,0.0,0.0,100,0.00,SCT,,0.00,WeatherDisplay:10.37,2013-11-30 22:17:00,
2013-11-30 17:18:00,47.8,47.8,30.34,SW,222,0.0,0.0,100,0.00,SCT,,0.00,WeatherDisplay:10.37,2013-11-30 22:18:00,
2013-11-30 17:19:00,47.8,47.8,30.34,SW,223,0.0,0.0,100,0.00,SCT,,0.00,WeatherDisplay:10.37,2013-11-30 22:19:00,
2013-11-30 17:21:00,47.7,47.7,30.34,SW,223,0.0,0.0,100,0.00,SCT,,0.00,WeatherDisplay:10.37,2013-11-30 22:21:00,
2013-11-30 17:22:00,47.6,47.6,30.34,SW,223,0.0,0.0,100,0.00,SCT,,0.00,WeatherDisplay:10.37,2013-11-30 22:22:00,
2013-11-30 17:23:00,47.4,47.4,30.34,SW,222,0.0,0.0,100,0.00,SCT,,0.00,WeatherDisplay:10.37,2013-11-30 22:23:00,
2013-11-30 17:24:00,47.3,47.3,30.34,SW,223,0.0,0.0,100,0.00,SCT,,0.00,WeatherDisplay:10.37,2013-11-30 22:24:00,
2013-11-30 17:26:00,47.1,47.1,30.34,SW,223,0.0,0.0,100,0.00,SCT,,0.00,WeatherDisplay:10.37,2013-11-30 22:26:00,
2013-11-30 17:27:00,47.1,47.1,30.34,SW,223,0.0,0.0,100,0.00,SCT,,0.00,WeatherDisplay:10.37,2013-11-30 22:27:00,
2013-11-30 17:28:00,47.0,47.0,30.34,SW,223,0.0,0.0,100,0.00,SCT,,0.00,WeatherDisplay:10.37,2013-11-30 22:28:00,
2013-11-30 17:29:00,46.9,46.9,30.34,SW,223,0.0,0.0,100,0.00,SCT,,0.00,WeatherDisplay:10.37,2013-11-30 22:29:00,
2013-11-30 17:31:00,46.6,46.6,30.34,SW,223,0.0,0.0,100,0.00,SCT,,0.00,WeatherDisplay:10.37,2013-11-30 22:31:00,
2013-11-30 17:32:00,46.5,46.5,30.34,SW,222,0.0,0.0,100,0.00,SCT,,0.00,WeatherDisplay:10.37,2013-11-30 22:32:00,
2013-11-30 17:33:00,46.5,46.5,30.34,SW,223,0.0,0.0,100,0.00,SCT,,0.00,WeatherDisplay:10.37,2013-11-30 22:33:00,
2013-11-30 17:34:00,46.4,46.4,30.34,SW,223,0.0,0.0,100,0.00,SCT,,0.00,WeatherDisplay:10.37,2013-11-30 22:34:00,
2013-11-30 17:35:00,46.3,46.3,30.34,SW,222,0.0,0.0,100,0.00,SCT,,0.00,WeatherDisplay:10.37,2013-11-30 22:35:00,
2013-11-30 17:36:00,46.3,46.3,30.34,SW,223,0.0,0.0,100,0.00,SCT,,0.00,WeatherDisplay:10.37,2013-11-30 22:36:00,
2013-11-30 17:37:00,46.4,46.4,30.34,SW,223,0.0,0.0,100,0.00,SCT,,0.00,WeatherDisplay:10.37,2013-11-30 22:37:00,
2013-11-30 17:38:00,46.4,46.4,30.34,SW,223,0.0,0.0,100,0.00,SCT,,0.00,WeatherDisplay:10.37,2013-11-30 22:38:00,
2013-11-30 17:39:00,46.4,46.4,30.34,SW,223,0.0,0.0,100,0.00,SCT,,0.00,WeatherDisplay:10.37,2013-11-30 22:39:00,
2013-11-30 17:41:00,46.1,46.1,30.34,SW,223,0.0,0.0,100,0.00,SCT,,0.00,WeatherDisplay:10.37,2013-11-30 22:41:00,
2013-11-30 17:42:00,45.9,45.9,30.34,SW,223,0.0,0.0,100,0.00,SCT,,0.00,WeatherDisplay:10.37,2013-11-30 22:42:00,
2013-11-30 17:43:00,45.8,45.8,30.34,SW,223,0.0,0.0,100,0.00,SCT,,0.00,WeatherDisplay:10.37,2013-11-30 22:43:00,
2013-11-30 17:44:00,45.7,45.7,30.34,SW,223,0.0,0.0,100,0.00,SCT,,0.00,WeatherDisplay:10.37,2013-11-30 22:44:00,
2013-11-30 17:46:00,45.6,45.6,30.34,SW,223,0.0,0.0,100,0.00,SCT,,0.00,WeatherDisplay:10.37,2013-11-30 22:46:00,
2013-11-30 17:48:00,45.6,45.6,30.34,SW,223,0.0,0.0,100,0.00,SCT,,0.00,WeatherDisplay:10.37,2013-11-30 22:48:00,
2013-11-30 17:49:00,45.5,45.5,30.34,SW,223,0.0,0.0,100,0.00,SCT,,0.00,WeatherDisplay:10.37,2013-11-30 22:49:00,
2013-11-30 17:51:00,45.6,45.6,30.34,SW,223,0.0,0.0,100,0.00,SCT,,0.00,WeatherDisplay:10.37,2013-11-30 22:51:00,
2013-11-30 17:52:00,45.5,45.5,30.34,SW,223,0.0,0.0,100,0.00,SCT,,0.00,WeatherDisplay:10.37,2013-11-30 22:52:00,
2013-11-30 17:53:00,45.5,45.5,30.34,SW,223,0.0,0.0,100,0.00,SCT,,0.00,WeatherDisplay:10.37,2013-11-30 22:53:00,
2013-11-30 17:54:00,45.5,45.5,30.34,SW,223,0.0,0.0,100,0.00,SCT,,0.00,WeatherDisplay:10.37,2013-11-30 22:54:00,
2013-11-30 17:55:00,45.4,45.4,30.33,SW,222,0.0,0.0,100,0.00,SCT,,0.00,WeatherDisplay:10.37,2013-11-30 22:55:00,
2013-11-30 17:56:00,45.2,45.2,30.33,SW,223,0.0,0.0,100,0.00,SCT,,0.00,WeatherDisplay:10.37,2013-11-30 22:56:00,
2013-11-30 17:57:00,45.2,45.2,30.33,SW,223,0.0,0.0,100,0.00,SCT,,0.00,WeatherDisplay:10.37,2013-11-30 22:57:00,
2013-11-30 17:59:00,45.1,45.1,30.33,SW,223,0.0,0.0,100,0.00,SCT,,0.00,WeatherDisplay:10.37,2013-11-30 22:59:00,
2013-11-30 18:00:00,45.1,45.1,30.33,SW,222,0.0,0.0,100,0.00,SCT,,0.00,WeatherDisplay:10.37,2013-11-30 23:00:00,
2013-11-30 18:01:00,45.1,45.1,30.33,SW,223,0.0,0.0,100,0.00,CLR,,0.00,WeatherDisplay:10.37,2013-11-30 23:01:00,
2013-11-30 18:02:00,45.1,45.1,30.33,SW,223,0.0,0.0,100,0.00,CLR,,0.00,WeatherDisplay:10.37,2013-11-30 23:02:00,
2013-11-30 18:04:00,45.1,45.1,30.34,SW,223,0.0,0.0,100,0.00,CLR,,0.00,WeatherDisplay:10.37,2013-11-30 23:04:00,
2013-11-30 18:05:00,45.0,45.0,30.34,SW,222,0.0,0.0,100,0.00,CLR,,0.00,WeatherDisplay:10.37,2013-11-30 23:05:00,
2013-11-30 18:06:00,44.9,44.9,30.34,SW,223,0.0,0.0,100,0.00,CLR,,0.00,WeatherDisplay:10.37,2013-11-30 23:06:00,
2013-11-30 18:08:00,44.8,44.8,30.34,SW,223,0.0,0.0,100,0.00,CLR,,0.00,WeatherDisplay:10.37,2013-11-30 23:08:00,
2013-11-30 18:09:00,44.8,44.8,30.33,SW,222,0.0,0.0,100,0.00,CLR,,0.00,WeatherDisplay:10.37,2013-11-30 23:09:00,
2013-11-30 18:10:00,44.7,44.7,30.34,SW,223,0.0,0.0,100,0.00,CLR,,0.00,WeatherDisplay:10.37,2013-11-30 23:10:00,
2013-11-30 18:11:00,44.7,44.7,30.34,SW,222,0.0,0.0,100,0.00,CLR,,0.00,WeatherDisplay:10.37,2013-11-30 23:11:00,
2013-11-30 18:13:00,44.6,44.6,30.34,SW,223,0.0,0.0,100,0.00,CLR,,0.00,WeatherDisplay:10.37,2013-11-30 23:13:00,
2013-11-30 18:14:00,44.6,44.6,30.34,SW,223,0.0,0.0,100,0.00,CLR,,0.00,WeatherDisplay:10.37,2013-11-30 23:14:00,
2013-11-30 18:16:00,44.5,44.5,30.34,SW,223,0.0,0.0,100,0.00,CLR,,0.00,WeatherDisplay:10.37,2013-11-30 23:16:00,
2013-11-30 18:17:00,44.4,44.4,30.33,SW,223,0.0,0.0,100,0.00,CLR,,0.00,WeatherDisplay:10.37,2013-11-30 23:17:00,
2013-11-30 18:19:00,44.3,44.3,30.33,SW,223,0.0,0.0,100,0.00,CLR,,0.00,WeatherDisplay:10.37,2013-11-30 23:19:00,
2013-11-30 18:20:00,44.3,44.3,30.33,SW,223,0.0,0.0,100,0.00,CLR,,0.00,WeatherDisplay:10.37,2013-11-30 23:20:00,
2013-11-30 18:21:00,44.3,44.3,30.34,SW,223,0.0,0.0,100,0.00,CLR,,0.00,WeatherDisplay:10.37,2013-11-30 23:21:00,
2013-11-30 18:22:00,44.2,44.2,30.34,SW,223,0.0,0.0,100,0.00,CLR,,0.00,WeatherDisplay:10.37,2013-11-30 23:22:00,
2013-11-30 18:24:00,44.1,44.1,30.34,SW,223,0.0,0.0,100,0.00,CLR,,0.00,WeatherDisplay:10.37,2013-11-30 23:24:00,
2013-11-30 18:25:00,44.0,44.0,30.34,SW,223,0.0,0.0,100,0.00,CLR,,0.00,WeatherDisplay:10.37,2013-11-30 23:25:00,
2013-11-30 18:26:00,43.9,43.9,30.33,SW,223,0.0,0.0,100,0.00,CLR,,0.00,WeatherDisplay:10.37,2013-11-30 23:26:00,
2013-11-30 18:27:00,43.9,43.9,30.34,SW,223,0.0,0.0,100,0.00,CLR,,0.00,WeatherDisplay:10.37,2013-11-30 23:27:00,
2013-11-30 18:29:00,43.6,43.6,30.33,SW,223,0.0,0.0,100,0.00,CLR,,0.00,WeatherDisplay:10.37,2013-11-30 23:29:00,
2013-11-30 18:30:00,43.4,43.4,30.33,SW,222,0.0,0.0,100,0.00,CLR,,0.00,WeatherDisplay:10.37,2013-11-30 23:30:00,
2013-11-30 18:31:00,43.4,43.4,30.33,SW,223,0.0,0.0,100,0.00,CLR,,0.00,WeatherDisplay:10.37,2013-11-30 23:31:00,
2013-11-30 18:32:00,43.4,43.4,30.33,SW,223,0.0,0.0,100,0.00,CLR,,0.00,WeatherDisplay:10.37,2013-11-30 23:32:00,
2013-11-30 18:33:00,43.4,43.4,30.33,SW,223,0.0,0.0,100,0.00,CLR,,0.00,WeatherDisplay:10.37,2013-11-30 23:33:00,
2013-11-30 18:34:00,43.3,43.3,30.33,SW,222,0.0,0.0,100,0.00,CLR,,0.00,WeatherDisplay:10.37,2013-11-30 23:34:00,
2013-11-30 18:35:00,43.3,43.3,30.33,SW,223,0.0,0.0,100,0.00,CLR,,0.00,WeatherDisplay:10.37,2013-11-30 23:35:00,
2013-11-30 18:36:00,43.3,43.3,30.34,SW,223,0.0,0.0,100,0.00,CLR,,0.00,WeatherDisplay:10.37,2013-11-30 23:36:00,
2013-11-30 18:38:00,43.3,43.3,30.34,SW,223,0.0,0.0,100,0.00,CLR,,0.00,WeatherDisplay:10.37,2013-11-30 23:38:00,
2013-11-30 18:39:00,43.3,43.3,30.34,SW,223,0.0,1.0,100,0.00,CLR,,0.00,WeatherDisplay:10.37,2013-11-30 23:39:00,
2013-11-30 18:40:00,43.3,43.3,30.34,SW,223,0.1,1.1,100,0.00,CLR,,0.00,WeatherDisplay:10.37,2013-11-30 23:40:00,
2013-11-30 18:41:00,43.3,43.3,30.34,SW,223,0.0,1.1,100,0.00,CLR,,0.00,WeatherDisplay:10.37,2013-11-30 23:41:00,
2013-11-30 18:42:00,43.3,43.3,30.33,SW,222,0.0,0.0,100,0.00,CLR,,0.00,WeatherDisplay:10.37,2013-11-30 23:42:00,
2013-11-30 18:43:00,43.3,43.3,30.33,SW,223,0.0,0.0,100,0.00,CLR,,0.00,WeatherDisplay:10.37,2013-11-30 23:43:00,
2013-11-30 18:45:00,43.2,43.2,30.33,SW,222,0.0,0.0,100,0.00,CLR,,0.00,WeatherDisplay:10.37,2013-11-30 23:45:00,
2013-11-30 18:46:00,43.1,43.1,30.33,SW,223,0.0,0.0,100,0.00,CLR,,0.00,WeatherDisplay:10.37,2013-11-30 23:46:00,
2013-11-30 18:47:00,43.0,43.0,30.33,SW,223,0.0,0.0,100,0.00,CLR,,0.00,WeatherDisplay:10.37,2013-11-30 23:47:00,
2013-11-30 18:48:00,42.9,42.9,30.33,SW,223,0.0,0.0,100,0.00,CLR,,0.00,WeatherDisplay:10.37,2013-11-30 23:48:00,
2013-11-30 18:50:00,42.9,42.9,30.33,SW,222,0.0,0.0,100,0.00,CLR,,0.00,WeatherDisplay:10.37,2013-11-30 23:50:00,
2013-11-30 18:51:00,42.8,42.8,30.33,SW,223,0.0,0.0,100,0.00,CLR,,0.00,WeatherDisplay:10.37,2013-11-30 23:51:00,
2013-11-30 18:53:00,42.8,42.8,30.33,SW,223,0.0,0.0,100,0.00,CLR,,0.00,WeatherDisplay:10.37,2013-11-30 23:53:00,
2013-11-30 18:54:00,42.8,42.8,30.33,SW,222,0.0,0.0,100,0.00,CLR,,0.00,WeatherDisplay:10.37,2013-11-30 23:54:00,
2013-11-30 18:55:00,42.8,42.8,30.33,SW,223,0.0,0.0,100,0.00,CLR,,0.00,WeatherDisplay:10.37,2013-11-30 23:55:00,
2013-11-30 18:56:00,42.8,42.8,30.33,SW,223,0.0,0.0,100,0.00,CLR,,0.00,WeatherDisplay:10.37,2013-11-30 23:56:00,
2013-11-30 18:59:00,42.6,42.6,30.33,SW,223,0.0,0.0,100,0.00,CLR,,0.00,WeatherDisplay:10.37,2013-11-30 23:59:00,
2013-11-30 19:00:00,42.5,42.5,30.33,SW,222,0.0,0.0,100,0.00,SCT,,0.00,WeatherDisplay:10.37,2013-12-01 00:00:00,
2013-11-30 19:01:00,42.5,42.5,30.33,SW,223,0.0,0.0,100,0.00,SCT,,0.00,WeatherDisplay:10.37,2013-12-01 00:01:00,
2013-11-30 19:04:00,42.3,42.3,30.33,SW,223,0.0,0.0,100,0.00,SCT,,0.00,WeatherDisplay:10.37,2013-12-01 00:04:00,
2013-11-30 19:05:00,42.3,42.3,30.33,SW,223,0.0,0.0,100,0.00,SCT,,0.00,WeatherDisplay:10.37,2013-12-01 00:05:00,
2013-11-30 19:06:00,42.3,42.3,30.33,SW,223,0.0,0.0,100,0.00,SCT,,0.00,WeatherDisplay:10.37,2013-12-01 00:06:00,
2013-11-30 19:09:00,42.1,42.1,30.34,SW,223,0.0,0.0,100,0.00,SCT,,0.00,WeatherDisplay:10.37,2013-12-01 00:09:00,
2013-11-30 19:10:00,42.0,42.0,30.34,SW,223,0.0,0.0,100,0.00,SCT,,0.00,WeatherDisplay:10.37,2013-12-01 00:10:00,
2013-11-30 19:11:00,42.0,42.0,30.33,SW,222,0.0,0.0,100,0.00,SCT,,0.00,WeatherDisplay:10.37,2013-12-01 00:11:00,
2013-11-30 19:12:00,42.0,42.0,30.33,SW,223,0.0,0.0,100,0.00,SCT,,0.00,WeatherDisplay:10.37,2013-12-01 00:12:00,
2013-11-30 19:15:00,41.9,41.9,30.33,SW,223,0.0,0.0,100,0.00,SCT,,0.00,WeatherDisplay:10.37,2013-12-01 00:15:00,
2013-11-30 19:16:00,41.9,41.9,30.33,SW,222,0.0,0.0,100,0.00,SCT,,0.00,WeatherDisplay:10.37,2013-12-01 00:16:00,
2013-11-30 19:17:00,41.9,41.9,30.33,SW,223,0.0,0.0,100,0.00,SCT,,0.00,WeatherDisplay:10.37,2013-12-01 00:17:00,
2013-11-30 19:20:00,41.9,41.9,30.33,SW,222,0.0,0.0,100,0.00,SCT,,0.00,WeatherDisplay:10.37,2013-12-01 00:20:00,
2013-11-30 19:21:00,41.9,41.9,30.34,SW,223,0.0,0.0,100,0.00,SCT,,0.00,WeatherDisplay:10.37,2013-12-01 00:21:00,
2013-11-30 19:22:00,41.9,41.9,30.34,SW,223,0.0,0.0,100,0.00,SCT,,0.00,WeatherDisplay:10.37,2013-12-01 00:22:00,
2013-11-30 19:25:00,41.8,41.8,30.34,SW,223,0.0,0.0,100,0.00,SCT,,0.00,WeatherDisplay:10.37,2013-12-01 00:25:00,
2013-11-30 19:26:00,41.8,41.8,30.34,SW,223,0.0,0.0,100,0.00,SCT,,0.00,WeatherDisplay:10.37,2013-12-01 00:26:00,
2013-11-30 19:27:00,41.7,41.7,30.34,SW,222,0.0,0.0,100,0.00,SCT,,0.00,WeatherDisplay:10.37,2013-12-01 00:27:00,
2013-11-30 19:28:00,41.7,41.7,30.34,SW,223,0.0,0.0,100,0.00,SCT,,0.00,WeatherDisplay:10.37,2013-12-01 00:28:00,
2013-11-30 19:30:00,41.7,41.7,30.34,SW,223,0.0,0.0,100,0.00,SCT,,0.00,WeatherDisplay:10.37,2013-12-01 00:30:00,
2013-11-30 19:32:00,41.7,41.7,30.34,SW,223,0.0,0.0,100,0.00,SCT,,0.00,WeatherDisplay:10.37,2013-12-01 00:32:00,
2013-11-30 19:33:00,41.7,41.7,30.33,SW,223,0.0,0.0,100,0.00,SCT,,0.00,WeatherDisplay:10.37,2013-12-01 00:33:00,
2013-11-30 19:35:00,41.7,41.7,30.33,SW,222,0.0,0.0,100,0.00,SCT,,0.00,WeatherDisplay:10.37,2013-12-01 00:35:00,
2013-11-30 19:37:00,41.6,41.6,30.34,SW,223,0.0,0.0,100,0.00,SCT,,0.00,WeatherDisplay:10.37,2013-12-01 00:37:00,
2013-11-30 19:38:00,41.6,41.6,30.34,SW,223,0.0,0.0,100,0.00,SCT,,0.00,WeatherDisplay:10.37,2013-12-01 00:38:00,
2013-11-30 19:40:00,41.4,41.4,30.33,SW,223,0.0,0.0,100,0.00,SCT,,0.00,WeatherDisplay:10.37,2013-12-01 00:40:00,
2013-11-30 19:42:00,41.3,41.3,30.33,SW,223,0.0,0.0,100,0.00,SCT,,0.00,WeatherDisplay:10.37,2013-12-01 00:42:00,
2013-11-30 19:43:00,41.3,41.3,30.33,SW,223,0.0,0.0,100,0.00,SCT,,0.00,WeatherDisplay:10.37,2013-12-01 00:43:00,
2013-11-30 19:46:00,41.2,41.2,30.33,SW,223,0.0,0.0,100,0.00,SCT,,0.00,WeatherDisplay:10.37,2013-12-01 00:46:00,
2013-11-30 19:47:00,41.2,41.2,30.33,SW,223,0.0,0.0,100,0.00,SCT,,0.00,WeatherDisplay:10.37,2013-12-01 00:47:00,
2013-11-30 19:48:00,41.1,41.1,30.33,SW,223,0.0,0.0,100,0.00,SCT,,0.00,WeatherDisplay:10.37,2013-12-01 00:48:00,
2013-11-30 19:49:00,41.2,41.2,30.33,SW,223,1.2,2.0,100,0.00,SCT,,0.00,WeatherDisplay:10.37,2013-12-01 00:49:00,
2013-11-30 19:51:00,41.1,41.1,30.33,SW,222,0.0,0.0,100,0.00,SCT,,0.00,WeatherDisplay:10.37,2013-12-01 00:51:00,
2013-11-30 19:53:00,41.1,41.1,30.33,SW,222,0.0,0.0,100,0.00,SCT,,0.00,WeatherDisplay:10.37,2013-12-01 00:53:00,
2013-11-30 19:54:00,41.2,41.2,30.33,SW,223,0.0,0.0,100,0.00,SCT,,0.00,WeatherDisplay:10.37,2013-12-01 00:54:00,
2013-11-30 19:56:00,41.2,41.2,30.33,SW,223,0.0,0.0,100,0.00,SCT,,0.00,WeatherDisplay:10.37,2013-12-01 00:56:00,
2013-11-30 19:58:00,41.1,41.1,30.33,SW,223,0.0,0.0,100,0.00,SCT,,0.00,WeatherDisplay:10.37,2013-12-01 00:58:00,
2013-11-30 19:59:00,41.0,41.0,30.33,SW,222,0.0,0.0,100,0.00,SCT,,0.00,WeatherDisplay:10.37,2013-12-01 00:59:00,
2013-11-30 20:01:00,40.9,40.9,30.33,SW,223,0.0,0.0,100,0.00,SCT,,0.00,WeatherDisplay:10.37,2013-12-01 01:01:00,
2013-11-30 20:03:00,40.8,40.8,30.33,SW,223,0.0,0.0,100,0.00,SCT,,0.00,WeatherDisplay:10.37,2013-12-01 01:03:00,
2013-11-30 20:04:00,40.8,40.8,30.33,SW,223,0.0,0.0,100,0.00,SCT,,0.00,WeatherDisplay:10.37,2013-12-01 01:04:00,
2013-11-30 20:05:00,40.7,40.7,30.33,SW,223,0.0,0.0,100,0.00,SCT,,0.00,WeatherDisplay:10.37,2013-12-01 01:05:00,
2013-11-30 20:06:00,40.7,40.7,30.33,SW,223,0.0,0.0,100,0.00,SCT,,0.00,WeatherDisplay:10.37,2013-12-01 01:06:00,
2013-11-30 20:08:00,40.6,40.6,30.33,SW,223,0.0,0.0,100,0.00,SCT,,0.00,WeatherDisplay:10.37,2013-12-01 01:08:00,
2013-11-30 20:09:00,40.6,40.6,30.33,SW,223,0.0,0.0,100,0.00,SCT,,0.00,WeatherDisplay:10.37,2013-12-01 01:09:00,
2013-11-30 20:10:00,40.5,40.5,30.33,SW,223,0.0,0.0,100,0.00,SCT,,0.00,WeatherDisplay:10.37,2013-12-01 01:10:00,
2013-11-30 20:11:00,40.5,40.5,30.33,SW,223,0.0,0.0,100,0.00,SCT,,0.00,WeatherDisplay:10.37,2013-12-01 01:11:00,
2013-11-30 20:13:00,40.5,40.5,30.33,SW,223,0.0,0.0,100,0.00,SCT,,0.00,WeatherDisplay:10.37,2013-12-01 01:13:00,
2013-11-30 20:14:00,40.5,40.5,30.33,SW,222,0.0,0.0,100,0.00,SCT,,0.00,WeatherDisplay:10.37,2013-12-01 01:14:00,
2013-11-30 20:15:00,40.5,40.5,30.33,SW,223,0.0,0.0,100,0.00,SCT,,0.00,WeatherDisplay:10.37,2013-12-01 01:15:00,
2013-11-30 20:16:00,40.5,40.5,30.33,SW,223,0.0,0.0,100,0.00,SCT,,0.00,WeatherDisplay:10.37,2013-12-01 01:16:00,
2013-11-30 20:17:00,40.4,40.4,30.33,SW,223,0.0,0.0,100,0.00,SCT,,0.00,WeatherDisplay:10.37,2013-12-01 01:17:00,
2013-11-30 20:19:00,40.4,40.4,30.33,SW,223,0.0,0.0,100,0.00,SCT,,0.00,WeatherDisplay:10.37,2013-12-01 01:19:00,
2013-11-30 20:20:00,40.4,40.4,30.33,SW,223,0.0,0.0,100,0.00,SCT,,0.00,WeatherDisplay:10.37,2013-12-01 01:20:00,
2013-11-30 20:22:00,40.4,40.4,30.33,SW,223,0.0,0.0,100,0.00,SCT,,0.00,WeatherDisplay:10.37,2013-12-01 01:22:00,
2013-11-30 20:24:00,40.3,40.3,30.33,SW,223,0.0,0.0,100,0.00,SCT,,0.00,WeatherDisplay:10.37,2013-12-01 01:24:00,
2013-11-30 20:26:00,40.2,40.2,30.33,SW,222,0.0,0.0,100,0.00,SCT,,0.00,WeatherDisplay:10.37,2013-12-01 01:26:00,
2013-11-30 20:27:00,40.2,40.2,30.33,SW,223,0.0,0.0,100,0.00,SCT,,0.00,WeatherDisplay:10.37,2013-12-01 01:27:00,
2013-11-30 20:28:00,40.2,40.2,30.33,SW,222,0.0,0.0,100,0.00,SCT,,0.00,WeatherDisplay:10.37,2013-12-01 01:28:00,
2013-11-30 20:29:00,40.2,40.2,30.33,SW,223,0.0,0.0,100,0.00,SCT,,0.00,WeatherDisplay:10.37,2013-12-01 01:29:00,
2013-11-30 20:31:00,40.1,40.1,30.33,SW,223,0.0,0.0,100,0.00,SCT,,0.00,WeatherDisplay:10.37,2013-12-01 01:31:00,
2013-11-30 20:32:00,40.1,40.1,30.33,SW,223,0.0,0.0,100,0.00,SCT,,0.00,WeatherDisplay:10.37,2013-12-01 01:32:00,
2013-11-30 20:33:00,40.1,40.1,30.33,SW,223,0.0,0.0,100,0.00,SCT,,0.00,WeatherDisplay:10.37,2013-12-01 01:33:00,
2013-11-30 20:34:00,40.0,40.0,30.33,SW,223,0.0,0.0,100,0.00,SCT,,0.00,WeatherDisplay:10.37,2013-12-01 01:34:00,
2013-11-30 20:36:00,39.9,39.9,30.33,SW,223,0.0,0.0,100,0.00,SCT,,0.00,WeatherDisplay:10.37,2013-12-01 01:36:00,
2013-11-30 20:37:00,39.8,39.8,30.33,SW,223,0.0,0.0,100,0.00,SCT,,0.00,WeatherDisplay:10.37,2013-12-01 01:37:00,
2013-11-30 20:38:00,39.7,39.7,30.33,SW,223,0.0,0.0,100,0.00,SCT,,0.00,WeatherDisplay:10.37,2013-12-01 01:38:00,
2013-11-30 20:39:00,39.7,39.7,30.33,SW,223,0.0,0.0,100,0.00,SCT,,0.00,WeatherDisplay:10.37,2013-12-01 01:39:00,
2013-11-30 20:40:00,39.6,39.6,30.33,SW,222,0.0,0.0,100,0.00,SCT,,0.00,WeatherDisplay:10.37,2013-12-01 01:40:00,
2013-11-30 20:41:00,39.5,39.5,30.33,SW,223,0.0,0.0,100,0.00,SCT,,0.00,WeatherDisplay:10.37,2013-12-01 01:41:00,
2013-11-30 20:42:00,39.5,39.5,30.33,SW,223,0.0,0.0,100,0.00,SCT,,0.00,WeatherDisplay:10.37,2013-12-01 01:42:00,
2013-11-30 20:43:00,39.5,39.5,30.33,SW,223,0.0,0.0,100,0.00,SCT,,0.00,WeatherDisplay:10.37,2013-12-01 01:43:00,
2013-11-30 20:44:00,39.5,39.5,30.33,SW,223,0.0,0.0,100,0.00,SCT,,0.00,WeatherDisplay:10.37,2013-12-01 01:44:00,
2013-11-30 20:46:00,39.4,39.4,30.33,SW,223,0.0,0.0,100,0.00,SCT,,0.00,WeatherDisplay:10.37,2013-12-01 01:46:00,
2013-11-30 20:48:00,39.4,39.4,30.33,SW,222,0.0,0.0,100,0.00,SCT,,0.00,WeatherDisplay:10.37,2013-12-01 01:48:00,
2013-11-30 20:49:00,39.3,39.3,30.33,SW,223,0.0,0.0,100,0.00,SCT,,0.00,WeatherDisplay:10.37,2013-12-01 01:49:00,
2013-11-30 20:50:00,39.3,39.3,30.33,SW,222,0.0,0.0,100,0.00,SCT,,0.00,WeatherDisplay:10.37,2013-12-01 01:50:00,
2013-11-30 20:52:00,39.2,39.2,30.33,SW,223,0.0,0.0,100,0.00,SCT,,0.00,WeatherDisplay:10.37,2013-12-01 01:52:00,
2013-11-30 20:53:00,39.2,39.2,30.33,SW,223,0.0,0.0,100,0.00,SCT,,0.00,WeatherDisplay:10.37,2013-12-01 01:53:00,
2013-11-30 20:54:00,39.2,39.2,30.33,SW,223,0.0,0.0,100,0.00,SCT,,0.00,WeatherDisplay:10.37,2013-12-01 01:54:00,
2013-11-30 20:55:00,39.2,39.2,30.33,SW,223,0.0,0.0,100,0.00,SCT,,0.00,WeatherDisplay:10.37,2013-12-01 01:55:00,
2013-11-30 20:57:00,39.0,39.0,30.33,SW,223,0.0,0.0,100,0.00,SCT,,0.00,WeatherDisplay:10.37,2013-12-01 01:57:00,
2013-11-30 20:58:00,39.0,39.0,30.33,SW,223,0.0,0.0,100,0.00,SCT,,0.00,WeatherDisplay:10.37,2013-12-01 01:58:00,
2013-11-30 20:59:00,39.0,39.0,30.33,SW,222,0.0,0.0,100,0.00,SCT,,0.00,WeatherDisplay:10.37,2013-12-01 01:59:00,
2013-11-30 21:01:00,39.0,39.0,30.33,SW,223,0.0,0.0,100,0.00,SCT,,0.00,WeatherDisplay:10.37,2013-12-01 02:01:00,
2013-11-30 21:02:00,38.9,38.9,30.33,SW,223,0.0,0.0,100,0.00,SCT,,0.00,WeatherDisplay:10.37,2013-12-01 02:02:00,
2013-11-30 21:03:00,38.9,38.9,30.33,SW,223,0.0,0.0,100,0.00,SCT,,0.00,WeatherDisplay:10.37,2013-12-01 02:03:00,
2013-11-30 21:05:00,38.8,38.8,30.33,SW,223,0.0,0.0,100,0.00,SCT,,0.00,WeatherDisplay:10.37,2013-12-01 02:05:00,
2013-11-30 21:06:00,38.7,38.7,30.33,SW,223,0.0,0.0,100,0.00,SCT,,0.00,WeatherDisplay:10.37,2013-12-01 02:06:00,
2013-11-30 21:08:00,38.7,38.7,30.33,SW,223,0.0,0.0,100,0.00,SCT,,0.00,WeatherDisplay:10.37,2013-12-01 02:08:00,
2013-11-30 21:10:00,38.7,38.7,30.33,SW,222,0.0,0.0,100,0.00,SCT,,0.00,WeatherDisplay:10.37,2013-12-01 02:10:00,
2013-11-30 21:11:00,38.7,38.7,30.33,SW,222,0.0,0.0,100,0.00,SCT,,0.00,WeatherDisplay:10.37,2013-12-01 02:11:00,
2013-11-30 21:13:00,38.7,38.7,30.33,SW,222,0.0,0.0,100,0.00,SCT,,0.00,WeatherDisplay:10.37,2013-12-01 02:13:00,
2013-11-30 21:14:00,38.7,38.7,30.33,SW,223,0.0,0.0,100,0.00,SCT,,0.00,WeatherDisplay:10.37,2013-12-01 02:14:00,
2013-11-30 21:15:00,38.7,38.7,30.33,SW,223,0.0,0.0,100,0.00,SCT,,0.00,WeatherDisplay:10.37,2013-12-01 02:15:00,
2013-11-30 21:16:00,38.7,38.7,30.33,SW,223,0.0,0.0,100,0.00,SCT,,0.00,WeatherDisplay:10.37,2013-12-01 02:16:00,
2013-11-30 21:17:00,38.6,38.6,30.33,SW,223,0.0,0.0,100,0.00,SCT,,0.00,WeatherDisplay:10.37,2013-12-01 02:17:00,
2013-11-30 21:18:00,38.6,38.6,30.32,SW,223,0.0,0.0,100,0.00,SCT,,0.00,WeatherDisplay:10.37,2013-12-01 02:18:00,
2013-11-30 21:19:00,38.7,38.7,30.32,SW,223,0.0,0.0,100,0.00,SCT,,0.00,WeatherDisplay:10.37,2013-12-01 02:19:00,
2013-11-30 21:20:00,38.6,38.6,30.32,SW,223,0.0,0.0,100,0.00,SCT,,0.00,WeatherDisplay:10.37,2013-12-01 02:20:00,
2013-11-30 21:21:00,38.5,38.5,30.32,SW,223,0.0,0.0,100,0.00,SCT,,0.00,WeatherDisplay:10.37,2013-12-01 02:21:00,
2013-11-30 21:22:00,38.5,38.5,30.32,SW,222,0.0,0.0,100,0.00,SCT,,0.00,WeatherDisplay:10.37,2013-12-01 02:22:00,
2013-11-30 21:23:00,38.4,38.4,30.32,SW,223,0.0,0.0,100,0.00,SCT,,0.00,WeatherDisplay:10.37,2013-12-01 02:23:00,
2013-11-30 21:24:00,38.4,38.4,30.32,SW,223,0.0,0.0,100,0.00,SCT,,0.00,WeatherDisplay:10.37,2013-12-01 02:24:00,
2013-11-30 21:26:00,38.3,38.3,30.32,SW,223,0.0,0.0,100,0.00,SCT,,0.00,WeatherDisplay:10.37,2013-12-01 02:26:00,
2013-11-30 21:27:00,38.2,38.2,30.32,SW,223,0.0,0.0,100,0.00,SCT,,0.00,WeatherDisplay:10.37,2013-12-01 02:27:00,
2013-11-30 21:28:00,38.2,38.2,30.32,SW,223,0.0,0.0,100,0.00,SCT,,0.00,WeatherDisplay:10.37,2013-12-01 02:28:00,
2013-11-30 21:29:00,38.2,38.2,30.32,SW,222,0.0,0.0,100,0.00,SCT,,0.00,WeatherDisplay:10.37,2013-12-01 02:29:00,
2013-11-30 21:31:00,38.1,38.1,30.32,SW,223,0.0,0.0,100,0.00,SCT,,0.00,WeatherDisplay:10.37,2013-12-01 02:31:00,
2013-11-30 21:32:00,38.1,38.1,30.32,SW,223,0.0,0.0,100,0.00,SCT,,0.00,WeatherDisplay:10.37,2013-12-01 02:32:00,
2013-11-30 21:34:00,38.1,38.1,30.32,SW,223,0.0,0.0,100,0.00,SCT,,0.00,WeatherDisplay:10.37,2013-12-01 02:34:00,
2013-11-30 21:37:00,38.0,38.0,30.32,SW,223,0.0,0.0,100,0.00,SCT,,0.00,WeatherDisplay:10.37,2013-12-01 02:37:00,
2013-11-30 21:39:00,38.1,38.1,30.32,SW,222,0.0,0.0,100,0.00,SCT,,0.00,WeatherDisplay:10.37,2013-12-01 02:39:00,
2013-11-30 21:42:00,38.0,38.0,30.32,SW,223,0.0,0.0,100,0.00,SCT,,0.00,WeatherDisplay:10.37,2013-12-01 02:42:00,
2013-11-30 21:44:00,37.9,37.9,30.32,SW,223,0.0,0.0,100,0.00,SCT,,0.00,WeatherDisplay:10.37,2013-12-01 02:44:00,
2013-11-30 21:47:00,37.8,37.8,30.32,SW,223,0.0,0.0,100,0.00,SCT,,0.00,WeatherDisplay:10.37,2013-12-01 02:47:00,
2013-11-30 21:48:00,37.8,37.8,30.32,SW,223,0.0,0.0,100,0.00,SCT,,0.00,WeatherDisplay:10.37,2013-12-01 02:48:00,
2013-11-30 21:49:00,37.7,37.7,30.32,SW,223,0.0,0.0,100,0.00,SCT,,0.00,WeatherDisplay:10.37,2013-12-01 02:49:00,
2013-11-30 21:50:00,37.7,37.7,30.32,SW,222,0.0,0.0,100,0.00,SCT,,0.00,WeatherDisplay:10.37,2013-12-01 02:50:00,
2013-11-30 21:52:00,37.6,37.6,30.32,SW,223,0.0,0.0,100,0.00,SCT,,0.00,WeatherDisplay:10.37,2013-12-01 02:52:00,
2013-11-30 21:53:00,37.6,37.6,30.32,SW,223,0.0,0.0,100,0.00,SCT,,0.00,WeatherDisplay:10.37,2013-12-01 02:53:00,
2013-11-30 21:54:00,37.6,37.6,30.32,SW,223,0.0,0.0,100,0.00,SCT,,0.00,WeatherDisplay:10.37,2013-12-01 02:54:00,
2013-11-30 21:55:00,37.6,37.6,30.32,SW,223,0.0,0.0,100,0.00,SCT,,0.00,WeatherDisplay:10.37,2013-12-01 02:55:00,
2013-11-30 21:58:00,37.5,37.5,30.32,SW,223,0.0,0.0,100,0.00,SCT,,0.00,WeatherDisplay:10.37,2013-12-01 02:58:00,
2013-11-30 21:59:00,37.4,37.4,30.32,SW,222,0.0,0.0,100,0.00,SCT,,0.00,WeatherDisplay:10.37,2013-12-01 02:59:00,
2013-11-30 22:00:00,37.4,37.4,30.32,SW,223,0.0,0.0,100,0.00,SCT,,0.00,WeatherDisplay:10.37,2013-12-01 03:00:00,
2013-11-30 22:03:00,37.5,37.5,30.32,SW,223,0.0,0.0,100,0.00,CLR,,0.00,WeatherDisplay:10.37,2013-12-01 03:03:00,
2013-11-30 22:04:00,37.5,37.5,30.32,SW,223,0.0,0.0,100,0.00,CLR,,0.00,WeatherDisplay:10.37,2013-12-01 03:04:00,
2013-11-30 22:05:00,37.4,37.4,30.32,SW,223,0.0,0.0,100,0.00,CLR,,0.00,WeatherDisplay:10.37,2013-12-01 03:05:00,
2013-11-30 22:08:00,37.3,37.3,30.32,SW,222,0.0,0.0,100,0.00,CLR,,0.00,WeatherDisplay:10.37,2013-12-01 03:08:00,
2013-11-30 22:09:00,37.3,37.3,30.32,SW,223,0.0,0.0,100,0.00,CLR,,0.00,WeatherDisplay:10.37,2013-12-01 03:09:00,
2013-11-30 22:10:00,37.3,37.3,30.32,SW,223,0.0,0.0,100,0.00,CLR,,0.00,WeatherDisplay:10.37,2013-12-01 03:10:00,
2013-11-30 22:14:00,37.1,37.1,30.32,SW,223,0.0,0.0,100,0.00,CLR,,0.00,WeatherDisplay:10.37,2013-12-01 03:14:00,
2013-11-30 22:15:00,37.0,37.0,30.32,SW,222,0.0,0.0,100,0.00,CLR,,0.00,WeatherDisplay:10.37,2013-12-01 03:15:00,
2013-11-30 22:16:00,37.0,37.0,30.32,SW,223,0.0,0.0,100,0.00,CLR,,0.00,WeatherDisplay:10.37,2013-12-01 03:16:00,
2013-11-30 22:19:00,37.0,37.0,30.32,SW,223,0.0,0.0,100,0.00,CLR,,0.00,WeatherDisplay:10.37,2013-12-01 03:19:00,
2013-11-30 22:20:00,36.9,36.9,30.32,SW,223,0.0,0.0,100,0.00,CLR,,0.00,WeatherDisplay:10.37,2013-12-01 03:20:00,
2013-11-30 22:21:00,36.9,36.9,30.32,SW,223,0.0,0.0,100,0.00,CLR,,0.00,WeatherDisplay:10.37,2013-12-01 03:21:00,
2013-11-30 22:24:00,36.7,36.7,30.32,SW,223,0.0,0.0,100,0.00,CLR,,0.00,WeatherDisplay:10.37,2013-12-01 03:24:00,
2013-11-30 22:25:00,36.7,36.7,30.32,SW,223,0.0,0.0,100,0.00,CLR,,0.00,WeatherDisplay:10.37,2013-12-01 03:25:00,
2013-11-30 22:26:00,36.7,36.7,30.32,SW,222,0.0,0.0,100,0.00,CLR,,0.00,WeatherDisplay:10.37,2013-12-01 03:26:00,
2013-11-30 22:30:00,36.6,36.6,30.32,SW,223,0.0,0.0,100,0.00,CLR,,0.00,WeatherDisplay:10.37,2013-12-01 03:30:00,
2013-11-30 22:31:00,36.6,36.6,30.32,SW,223,0.0,0.0,100,0.00,CLR,,0.00,WeatherDisplay:10.37,2013-12-01 03:31:00,
2013-11-30 22:32:00,36.6,36.6,30.32,SW,223,0.0,0.0,100,0.00,CLR,,0.00,WeatherDisplay:10.37,2013-12-01 03:32:00,
2013-11-30 22:35:00,36.5,36.5,30.32,SW,223,0.0,0.0,100,0.00,CLR,,0.00,WeatherDisplay:10.37,2013-12-01 03:35:00,
2013-11-30 22:36:00,36.4,36.4,30.32,SW,223,0.0,0.0,100,0.00,CLR,,0.00,WeatherDisplay:10.37,2013-12-01 03:36:00,
2013-11-30 22:37:00,36.3,36.3,30.32,SW,223,0.0,0.0,100,0.00,CLR,,0.00,WeatherDisplay:10.37,2013-12-01 03:37:00,
2013-11-30 22:40:00,36.3,36.3,30.32,SW,223,0.0,0.0,100,0.00,CLR,,0.00,WeatherDisplay:10.37,2013-12-01 03:40:00,
2013-11-30 22:41:00,36.2,36.2,30.32,SW,223,0.0,0.0,100,0.00,CLR,,0.00,WeatherDisplay:10.37,2013-12-01 03:41:00,
2013-11-30 22:42:00,36.2,36.2,30.32,SW,223,0.0,0.0,100,0.00,CLR,,0.00,WeatherDisplay:10.37,2013-12-01 03:42:00,
2013-11-30 22:45:00,36.2,36.2,30.32,SW,223,0.0,0.0,100,0.00,CLR,,0.00,WeatherDisplay:10.37,2013-12-01 03:45:00,
2013-11-30 22:46:00,36.2,36.2,30.32,SW,223,0.0,0.0,100,0.00,CLR,,0.00,WeatherDisplay:10.37,2013-12-01 03:46:00,
2013-11-30 22:47:00,36.3,36.3,30.32,SW,223,0.0,0.0,100,0.00,CLR,,0.00,WeatherDisplay:10.37,2013-12-01 03:47:00,
2013-11-30 22:50:00,36.2,36.2,30.32,SW,223,0.0,0.0,100,0.00,CLR,,0.00,WeatherDisplay:10.37,2013-12-01 03:50:00,
2013-11-30 22:51:00,36.1,36.1,30.32,SW,223,0.0,0.0,100,0.00,CLR,,0.00,WeatherDisplay:10.37,2013-12-01 03:51:00,
2013-11-30 22:52:00,36.2,36.2,30.32,SW,223,0.0,0.0,100,0.00,CLR,,0.00,WeatherDisplay:10.37,2013-12-01 03:52:00,
2013-11-30 22:53:00,36.2,36.2,30.32,SW,223,0.0,0.0,100,0.00,CLR,,0.00,WeatherDisplay:10.37,2013-12-01 03:53:00,
2013-11-30 22:55:00,36.2,36.2,30.31,SW,223,0.0,0.0,100,0.00,CLR,,0.00,WeatherDisplay:10.37,2013-12-01 03:55:00,
2013-11-30 22:56:00,36.1,36.1,30.32,SW,223,0.0,0.0,100,0.00,CLR,,0.00,WeatherDisplay:10.37,2013-12-01 03:56:00,
2013-11-30 22:57:00,36.1,36.1,30.32,SW,223,0.0,0.0,100,0.00,CLR,,0.00,WeatherDisplay:10.37,2013-12-01 03:57:00,
2013-11-30 22:58:00,36.1,36.1,30.32,SW,223,0.0,0.0,100,0.00,CLR,,0.00,WeatherDisplay:10.37,2013-12-01 03:58:00,
2013-11-30 22:59:00,36.1,36.1,30.32,SW,223,0.0,0.0,100,0.00,CLR,,0.00,WeatherDisplay:10.37,2013-12-01 03:59:00,
2013-11-30 23:00:00,36.0,36.0,30.32,SW,222,0.0,0.0,100,0.00,CLR,,0.00,WeatherDisplay:10.37,2013-12-01 04:00:00,
2013-11-30 23:01:00,36.0,36.0,30.32,SW,223,0.0,0.0,100,0.00,CLR,,0.00,WeatherDisplay:10.37,2013-12-01 04:01:00,
2013-11-30 23:02:00,35.9,35.9,30.32,SW,223,0.0,0.0,100,0.00,CLR,,0.00,WeatherDisplay:10.37,2013-12-01 04:02:00,
2013-11-30 23:03:00,35.9,35.9,30.32,SW,223,0.0,0.0,100,0.00,CLR,,0.00,WeatherDisplay:10.37,2013-12-01 04:03:00,
2013-11-30 23:04:00,35.9,35.9,30.32,SW,223,0.0,0.0,100,0.00,CLR,,0.00,WeatherDisplay:10.37,2013-12-01 04:04:00,
2013-11-30 23:05:00,35.8,35.8,30.32,SW,223,0.0,0.0,100,0.00,CLR,,0.00,WeatherDisplay:10.37,2013-12-01 04:05:00,
2013-11-30 23:06:00,35.8,35.8,30.32,SW,223,0.0,0.0,100,0.00,CLR,,0.00,WeatherDisplay:10.37,2013-12-01 04:06:00,
2013-11-30 23:07:00,35.7,35.7,30.31,SW,222,0.0,0.0,100,0.00,CLR,,0.00,WeatherDisplay:10.37,2013-12-01 04:07:00,
2013-11-30 23:08:00,35.8,35.8,30.32,SW,223,0.0,0.0,100,0.00,CLR,,0.00,WeatherDisplay:10.37,2013-12-01 04:08:00,
2013-11-30 23:10:00,35.7,35.7,30.31,SW,223,0.0,0.0,100,0.00,CLR,,0.00,WeatherDisplay:10.37,2013-12-01 04:10:00,
2013-11-30 23:12:00,35.7,35.7,30.31,SW,223,0.0,0.0,100,0.00,CLR,,0.00,WeatherDisplay:10.37,2013-12-01 04:12:00,
2013-11-30 23:13:00,35.7,35.7,30.31,SW,223,0.0,0.0,100,0.00,CLR,,0.00,WeatherDisplay:10.37,2013-12-01 04:13:00,
2013-11-30 23:15:00,35.6,35.6,30.31,SW,223,0.0,0.0,100,0.00,CLR,,0.00,WeatherDisplay:10.37,2013-12-01 04:15:00,
2013-11-30 23:17:00,35.5,35.5,30.31,SW,222,0.0,0.0,100,0.00,CLR,,0.00,WeatherDisplay:10.37,2013-12-01 04:17:00,
2013-11-30 23:18:00,35.5,35.5,30.31,SW,222,0.0,0.0,100,0.00,CLR,,0.00,WeatherDisplay:10.37,2013-12-01 04:18:00,
2013-11-30 23:19:00,35.4,35.4,30.31,SW,223,0.0,0.0,100,0.00,CLR,,0.00,WeatherDisplay:10.37,2013-12-01 04:19:00,
2013-11-30 23:20:00,35.4,35.4,30.31,SW,223,0.0,0.0,100,0.00,CLR,,0.00,WeatherDisplay:10.37,2013-12-01 04:20:00,
2013-11-30 23:22:00,35.4,35.4,30.31,SW,222,0.0,0.0,100,0.00,CLR,,0.00,WeatherDisplay:10.37,2013-12-01 04:22:00,
2013-11-30 23:23:00,35.3,35.3,30.31,SW,223,0.0,0.0,100,0.00,CLR,,0.00,WeatherDisplay:10.37,2013-12-01 04:23:00,
2013-11-30 23:24:00,35.3,35.3,30.31,SW,223,0.0,0.0,100,0.00,CLR,,0.00,WeatherDisplay:10.37,2013-12-01 04:24:00,
2013-11-30 23:26:00,35.2,35.2,30.31,SW,223,0.0,0.0,100,0.00,CLR,,0.00,WeatherDisplay:10.37,2013-12-01 04:26:00,
2013-11-30 23:27:00,35.2,35.2,30.31,SW,223,0.0,0.0,100,0.00,CLR,,0.00,WeatherDisplay:10.37,2013-12-01 04:27:00,
2013-11-30 23:28:00,35.1,35.1,30.31,SW,222,0.0,0.0,100,0.00,CLR,,0.00,WeatherDisplay:10.37,2013-12-01 04:28:00,
2013-11-30 23:29:00,35.1,35.1,30.31,SW,223,0.0,0.0,100,0.00,CLR,,0.00,WeatherDisplay:10.37,2013-12-01 04:29:00,
2013-11-30 23:31:00,35.1,35.1,30.31,SW,223,0.0,0.0,100,0.00,CLR,,0.00,WeatherDisplay:10.37,2013-12-01 04:31:00,
2013-11-30 23:32:00,35.0,35.0,30.31,SW,222,0.0,0.0,100,0.00,CLR,,0.00,WeatherDisplay:10.37,2013-12-01 04:32:00,
2013-11-30 23:33:00,35.0,35.0,30.31,SW,222,0.0,0.0,100,0.00,CLR,,0.00,WeatherDisplay:10.37,2013-12-01 04:33:00,
2013-11-30 23:34:00,35.1,35.1,30.31,SW,222,0.0,0.0,100,0.00,CLR,,0.00,WeatherDisplay:10.37,2013-12-01 04:34:00,
2013-11-30 23:37:00,35.0,35.0,30.31,SW,223,0.2,2.0,100,0.00,CLR,,0.00,WeatherDisplay:10.37,2013-12-01 04:37:00,
2013-11-30 23:38:00,34.8,34.8,30.31,SW,223,0.0,2.3,100,0.00,CLR,,0.00,WeatherDisplay:10.37,2013-12-01 04:38:00,
2013-11-30 23:40:00,34.8,34.8,30.31,SW,223,0.0,0.0,100,0.00,CLR,,0.00,WeatherDisplay:10.37,2013-12-01 04:40:00,
2013-11-30 23:42:00,34.8,34.8,30.31,SW,223,0.0,0.0,100,0.00,CLR,,0.00,WeatherDisplay:10.37,2013-12-01 04:42:00,
2013-11-30 23:43:00,34.8,34.8,30.31,SW,222,0.0,0.0,100,0.00,CLR,,0.00,WeatherDisplay:10.37,2013-12-01 04:43:00,
2013-11-30 23:44:00,34.7,34.7,30.31,SW,223,0.0,0.0,100,0.00,CLR,,0.00,WeatherDisplay:10.37,2013-12-01 04:44:00,
2013-11-30 23:45:00,34.7,34.7,30.31,SW,223,0.0,0.0,100,0.00,CLR,,0.00,WeatherDisplay:10.37,2013-12-01 04:45:00,
2013-11-30 23:46:00,34.8,34.8,30.31,SW,223,0.0,0.0,100,0.00,CLR,,0.00,WeatherDisplay:10.37,2013-12-01 04:46:00,
2013-11-30 23:47:00,34.8,34.8,30.31,SW,223,0.0,0.0,100,0.00,CLR,,0.00,WeatherDisplay:10.37,2013-12-01 04:47:00,
2013-11-30 23:49:00,34.9,34.9,30.31,SW,222,0.0,0.0,100,0.00,CLR,,0.00,WeatherDisplay:10.37,2013-12-01 04:49:00,
2013-11-30 23:50:00,34.9,34.9,30.31,SW,223,0.0,0.0,100,0.00,CLR,,0.00,WeatherDisplay:10.37,2013-12-01 04:50:00,
2013-11-30 23:51:00,34.9,34.9,30.31,SW,223,0.0,0.0,100,0.00,CLR,,0.00,WeatherDisplay:10.37,2013-12-01 04:51:00,
2013-11-30 23:52:00,34.9,34.9,30.31,SW,223,0.0,0.0,100,0.00,CLR,,0.00,WeatherDisplay:10.37,2013-12-01 04:52:00,
2013-11-30 23:53:00,34.9,34.9,30.31,SW,223,0.0,0.0,100,0.00,CLR,,0.00,WeatherDisplay:10.37,2013-12-01 04:53:00,
2013-11-30 23:54:00,34.8,34.8,30.31,SW,222,0.0,0.0,100,0.00,CLR,,0.00,WeatherDisplay:10.37,2013-12-01 04:54:00,
2013-11-30 23:55:00,34.8,34.8,30.31,SW,222,0.0,0.0,100,0.00,CLR,,0.00,WeatherDisplay:10.37,2013-12-01 04:55:00,
2013-11-30 23:56:00,34.8,34.8,30.31,SW,223,0.0,0.0,100,0.00,CLR,,0.00,WeatherDisplay:10.37,2013-12-01 04:56:00,
2013-11-30 23:57:00,34.7,34.7,30.31,SW,222,0.0,0.0,100,0.00,CLR,,0.00,WeatherDisplay:10.37,2013-12-01 04:57:00,
2013-11-30 23:58:00,34.7,34.7,30.31,SW,223,0.0,0.0,100,0.00,CLR,,0.00,WeatherDisplay:10.37,2013-12-01 04:58:00,
2013-11-30 23:59:00,34.6,34.6,30.31,SW,222,0.0,0.0,100,0.00,CLR,,0.00,WeatherDisplay:10.37,2013-12-01 04:59:00,